ECMWFNIL_850_thetae_000.txt.gz
Theta_e
335 337 337 338 338 338 338 337 336 336 335 335 336 335 333 332 333 333 331 331 332 334 334 334 336 338 337 335 336 338 340 341 338 337 336 337 337 338 340 341 342 341
334 335 335 335 336 337 338 338 336 335 335 336 336 334 333 333 334 334 334 333 335 335 334 334 336 338 338 336 335 336 337 337 336 335 336 339 339 339 340 340 339 339
333 334 334 334 334 335 336 336 335 335 335 335 335 334 334 334 334 335 335 335 335 335 335 334 334 335 335 334 333 333 333 333 333 332 334 338 339 340 339 339 339 337
333 333 333 332 332 332 333 333 333 332 333 333 333 333 332 333 333 334 335 335 334 334 334 333 333 333 333 332 332 332 332 331 330 330 331 333 335 337 338 338 338 338
331 331 331 331 330 330 330 331 331 331 332 331 331 331 330 331 331 332 333 334 334 335 334 333 332 331 331 330 330 331 331 332 331 329 329 330 332 335 338 338 337 337
329 329 330 330 330 330 330 330 331 331 331 330 329 329 329 330 330 330 331 332 334 334 334 333 331 331 330 328 328 330 331 333 333 331 333 335 335 337 339 337 336 336
328 328 329 329 329 329 329 329 330 331 330 330 329 330 331 331 332 332 332 332 333 333 333 332 331 331 330 329 328 330 331 333 333 333 334 335 337 340 340 336 334 334
328 330 329 327 327 328 330 330 330 330 329 329 330 331 332 333 332 332 332 332 333 333 333 333 332 332 333 332 329 329 331 333 333 334 335 335 336 340 341 337 335 335
328 330 329 327 327 328 329 329 329 329 328 328 329 330 332 332 331 330 331 332 332 333 333 333 333 333 333 333 332 332 333 335 335 336 337 337 336 337 339 338 337 337
327 328 329 328 327 328 328 327 327 328 328 328 329 330 331 330 329 330 331 332 332 333 334 333 333 333 332 333 334 334 335 335 336 336 336 336 334 334 336 336 336 336
328 328 328 328 327 327 328 327 327 327 328 329 328 328 328 329 329 329 330 330 331 333 335 335 334 334 333 333 334 335 335 334 334 334 333 333 332 333 333 334 334 335
327 327 327 328 328 328 327 327 327 326 326 328 328 327 328 328 328 328 328 328 329 331 333 335 336 335 334 334 334 333 333 333 333 332 331 331 331 332 333 334 334 335
326 327 327 328 328 328 328 327 327 327 326 327 328 328 328 328 328 327 326 327 329 329 331 333 335 335 334 334 333 333 333 333 333 333 332 332 332 332 333 334 334 335
326 328 328 328 328 328 328 328 327 328 327 327 327 327 326 327 328 326 325 327 329 330 331 331 332 334 335 335 335 334 334 333 333 333 334 335 334 334 333 334 335 336
326 327 327 328 328 328 329 329 328 328 327 326 325 326 325 326 327 325 325 327 329 330 330 330 330 334 337 337 337 336 334 333 332 333 335 337 337 337 336 335 336 337
326 326 325 326 327 328 329 328 327 328 326 325 325 326 326 326 325 324 325 327 329 330 330 330 331 334 337 337 336 336 335 333 332 334 335 337 338 338 337 337 337 338
325 325 324 325 326 327 328 327 326 327 327 326 327 327 326 326 324 324 326 328 329 329 331 333 333 333 334 334 334 335 335 333 334 335 336 337 338 339 338 338 337 337
323 324 324 324 325 326 327 326 326 327 328 328 329 328 327 327 325 324 327 328 327 329 332 333 332 331 331 331 332 333 334 334 334 337 337 337 339 340 339 337 337 338
323 323 322 323 324 325 326 326 327 328 328 327 328 328 328 328 326 324 326 328 327 327 329 329 328 328 328 329 331 332 333 333 335 336 337 337 338 340 340 337 337 339
323 322 322 323 325 326 326 326 327 328 328 326 327 328 328 328 326 323 325 328 327 325 325 325 325 326 327 328 331 333 334 334 336 337 337 337 338 339 340 338 337 339
322 322 324 326 328 327 327 326 327 328 328 327 326 326 327 328 326 323 325 329 327 324 324 324 325 326 328 329 330 333 335 336 337 338 338 337 337 338 339 340 339 339
322 323 325 327 328 329 329 328 327 327 327 326 326 325 326 328 327 324 325 328 327 325 324 324 325 326 327 328 328 331 335 337 337 338 338 336 336 337 338 338 339 338
322 322 324 325 327 329 330 328 327 326 326 326 326 325 325 326 327 326 326 326 326 326 325 324 325 325 325 327 328 330 333 336 337 338 337 335 335 335 336 338 337 337
319 320 322 324 326 328 329 327 325 325 325 325 325 325 324 326 327 326 325 325 326 326 326 324 324 325 324 326 329 331 333 335 338 338 336 335 336 336 335 336 336 336
318 319 322 323 324 326 326 325 323 324 324 325 325 325 325 325 327 327 326 326 326 326 326 324 324 324 324 325 327 330 332 333 335 337 337 336 337 337 336 337 337 336
318 320 322 322 323 324 325 324 323 324 325 325 325 325 325 325 326 326 326 326 326 326 326 325 324 323 323 324 325 327 328 330 332 335 335 335 336 335 335 336 336 335

ECMWFNIL_850_thetae_003.txt.gz
Theta_e
329 330 330 331 332 332 333 335 337 337 337 336 336 336 336 335 335 335 335 335 335 334 334 334 333 333 333 332 332 333 333 333 333 331 332 334 335 335 337 338 338 338
329 330 331 331 331 331 332 333 334 335 335 335 335 335 335 335 335 335 335 335 335 335 335 334 332 332 332 332 333 333 333 333 334 334 334 335 335 335 337 339 338 337
329 329 330 330 330 330 330 331 331 332 331 332 332 332 332 332 333 333 333 333 333 333 333 333 332 332 332 334 334 334 334 334 333 334 334 335 334 333 334 335 335 335
327 328 328 328 329 329 329 329 329 329 330 330 330 330 330 331 330 330 330 331 331 331 331 331 332 332 332 334 334 334 334 334 333 333 333 334 334 333 332 332 333 333
326 326 327 328 328 328 327 328 328 329 329 329 330 330 330 330 330 330 331 331 332 331 331 331 331 332 332 333 334 334 334 334 334 333 333 333 333 333 332 331 331 330
325 325 326 328 328 327 326 327 328 328 329 329 329 329 328 328 329 331 332 332 331 331 331 331 332 332 332 333 333 334 334 334 333 332 332 333 332 331 331 331 332 331
324 324 325 326 327 327 326 327 328 328 328 327 327 327 327 328 330 331 330 330 330 330 330 331 332 332 333 333 333 334 334 334 333 332 332 332 331 330 331 332 332 332
324 324 325 325 326 327 326 327 327 327 326 326 326 326 327 328 329 329 328 328 328 328 329 329 330 331 332 333 334 333 333 333 333 333 332 332 332 331 330 332 333 333
324 324 325 325 326 326 327 327 326 326 326 325 325 326 327 327 328 328 327 326 326 326 327 328 329 330 332 333 334 333 333 333 333 333 334 333 333 331 330 331 333 333
324 324 325 326 326 327 327 327 326 326 326 326 327 327 327 326 327 327 326 325 325 325 327 329 329 330 331 333 334 334 333 333 332 333 334 335 334 332 331 332 333 333
324 324 325 327 327 327 328 327 327 327 327 327 328 326 326 325 325 325 325 325 324 326 328 329 330 331 331 332 333 335 335 333 333 333 335 335 335 335 334 334 335 335
323 325 326 327 327 327 327 328 328 328 328 328 326 325 326 325 324 324 324 324 325 327 329 329 330 331 331 331 332 334 335 334 334 335 335 335 335 336 336 335 336 335
324 325 326 327 326 327 327 328 328 327 327 327 326 325 326 326 324 324 324 324 326 328 328 329 330 330 331 331 332 334 335 335 334 335 334 334 333 333 334 334 334 334
324 325 325 325 326 326 326 327 327 326 326 327 326 326 326 326 325 324 324 325 326 327 328 329 331 332 333 333 334 334 335 335 335 335 334 334 333 333 333 333 333 333
322 323 324 325 325 325 325 326 326 326 326 327 327 327 326 326 326 324 324 326 327 327 326 327 328 330 331 332 332 332 332 333 334 334 335 335 335 334 333 333 333 333
322 322 323 323 323 322 323 325 325 326 327 327 326 326 325 326 326 325 324 326 328 327 325 324 324 325 327 327 328 328 329 329 330 332 334 335 335 334 333 333 333 333
322 322 322 322 322 321 322 324 325 326 327 327 326 325 325 326 327 325 323 326 329 328 326 325 324 324 325 326 327 327 328 329 330 331 332 333 334 335 333 333 334 334
322 322 322 322 323 324 325 326 325 326 327 327 327 326 325 326 327 325 325 327 328 328 327 325 324 324 325 326 327 327 328 329 330 331 332 332 333 333 334 335 336 336
322 322 322 323 325 327 328 328 327 326 327 327 326 326 325 326 326 326 326 327 327 327 327 326 324 324 324 325 328 329 329 329 330 331 333 334 333 334 335 336 336 337
322 322 323 324 325 326 328 329 328 327 327 326 325 326 325 325 326 326 326 327 326 326 326 325 324 324 324 326 328 329 330 331 332 333 335 335 335 336 337 337 336 337
322 321 322 322 323 325 327 329 327 326 326 325 324 325 324 324 325 326 326 326 326 326 326 326 325 323 323 325 327 328 329 331 333 335 336 336 337 338 337 336 337 337
320 320 319 319 322 323 325 327 326 324 324 324 324 324 324 325 325 326 326 326 326 326 326 326 325 324 323 324 325 326 329 331 332 335 336 337 337 337 335 336 337 338
320 319 318 319 321 323 324 325 324 323 324 324 324 324 325 325 325 326 326 326 326 326 326 326 325 324 322 323 324 325 327 330 331 332 335 336 336 335 335 336 337 337
320 319 318 320 322 322 323 324 324 323 324 324 324 324 325 325 325 324 324 324 324 326 327 326 325 324 322 322 323 324 326 328 328 329 331 333 333 334 335 336 336 337
319 319 319 320 321 322 323 324 324 323 324 325 324 324 325 325 324 323 322 322 323 325 327 326 325 324 323 321 322 324 325 325 325 326 327 329 330 332 334 334 335 335
319 319 320 320 320 322 323 324 323 323 323 324 324 324 325 324 322 322 322 321 321 323 326 325 323 322 323 323 323 322 324 325 325 324 324 324 326 329 332 333 333 332

ECMWFNIL_850_thetae_006.txt.gz
Theta_e
322 323 324 326 327 327 328 328 329 329 330 331 332 333 334 334 334 334 335 335 336 336 336 336 336 337 337 336 336 336 337 336 335 334 334 334 333 333 333 333 332 330
324 325 325 326 325 325 326 327 328 328 328 329 329 330 331 331 331 332 332 333 333 334 334 334 334 335 335 335 335 335 335 334 334 333 333 333 333 333 333 333 332 332
325 326 325 324 324 324 325 326 326 326 327 328 329 329 329 330 330 330 330 330 330 330 331 331 331 332 331 332 332 332 332 332 332 332 332 332 333 333 334 334 333 333
326 325 324 324 324 324 325 326 326 326 326 328 329 329 329 329 329 329 329 329 329 329 329 329 330 329 329 330 330 330 330 330 330 330 331 332 332 333 334 334 334 334
326 324 324 323 323 324 325 326 326 326 327 327 327 328 328 328 328 328 328 329 329 329 329 330 330 330 330 330 330 331 331 330 330 330 330 331 331 333 334 334 333 333
326 324 324 323 324 324 325 326 326 326 326 326 326 326 327 327 327 328 328 329 329 329 329 329 329 329 329 329 329 330 330 331 331 331 331 331 331 332 334 334 334 334
326 324 323 323 324 325 325 325 326 326 326 326 326 326 326 326 327 327 328 327 327 326 325 325 326 327 327 328 328 328 329 330 330 332 332 333 332 333 333 334 334 334
325 324 323 323 324 325 326 326 327 327 326 326 326 326 326 326 326 326 326 326 325 325 324 324 326 327 328 328 329 330 330 330 330 332 332 333 333 333 333 334 335 334
324 324 323 324 326 326 326 326 327 327 327 327 327 327 327 326 325 325 324 324 324 324 324 325 327 327 327 328 330 330 331 331 331 332 333 333 334 334 333 334 334 334
323 323 323 324 326 327 326 326 327 327 328 327 327 327 326 325 325 325 324 323 323 323 325 326 327 327 327 330 331 332 332 332 331 332 333 334 334 334 334 334 334 334
322 323 323 324 325 326 326 326 327 326 326 326 326 327 326 325 326 325 324 323 323 324 326 327 327 325 325 328 330 330 331 332 332 332 333 334 335 335 334 334 334 334
322 323 323 324 324 325 325 325 325 325 325 325 326 326 326 325 326 325 324 324 323 325 327 327 326 325 324 325 325 326 327 329 330 331 332 334 335 335 335 334 334 333
321 322 323 323 323 323 323 323 322 323 325 326 326 327 326 326 326 325 325 324 324 326 327 327 327 325 324 325 325 325 325 326 327 328 329 330 333 335 335 334 334 334
321 322 322 322 322 322 322 321 321 322 324 326 326 326 326 325 325 325 326 325 325 326 327 327 327 325 325 325 324 325 326 327 328 328 328 328 328 331 334 334 334 334
322 322 322 322 322 322 322 321 321 323 325 326 327 326 326 325 325 326 326 326 326 326 326 326 327 326 325 325 324 324 326 327 328 328 329 329 327 328 330 332 334 334
322 323 322 322 322 322 323 324 324 325 326 326 327 327 327 326 325 325 326 326 326 326 326 326 326 326 325 324 323 324 324 326 327 328 329 330 330 329 328 330 332 333
324 323 323 322 322 323 325 326 326 327 327 326 327 327 326 326 325 325 325 326 326 326 326 326 326 326 325 324 323 323 324 325 327 327 329 331 331 331 329 330 331 331
324 324 322 321 322 323 324 325 325 327 327 327 327 326 325 325 325 324 325 326 326 326 326 326 326 326 325 323 323 323 324 326 326 326 328 330 332 332 332 331 331 332
325 325 323 322 322 322 322 323 323 325 326 326 326 325 324 324 324 324 325 325 326 326 325 325 326 326 325 323 322 323 324 325 325 325 327 329 331 333 334 333 334 335
326 326 323 321 320 319 319 320 321 323 324 325 324 324 324 325 324 325 325 325 326 325 324 325 326 325 324 322 322 323 324 325 324 324 325 328 330 333 334 335 335 336
327 326 322 320 319 318 319 320 321 322 323 324 323 323 324 324 324 325 324 324 324 323 323 325 326 325 324 322 322 322 323 324 325 323 324 326 329 330 332 335 336 336
326 324 321 320 319 318 319 321 321 322 323 324 323 324 324 324 324 325 323 322 322 322 323 325 324 323 323 323 323 322 323 324 325 323 323 324 327 328 330 333 334 334
325 323 321 319 319 319 320 320 320 322 323 324 323 324 324 324 324 324 323 322 323 321 322 325 323 321 323 324 323 322 322 323 324 323 322 323 325 326 329 330 331 332
324 323 321 319 319 319 319 320 321 323 323 323 323 323 323 324 324 323 322 323 323 320 321 324 324 322 323 323 323 323 323 322 323 323 323 323 322 323 325 327 329 330
323 323 320 319 319 319 319 319 322 323 323 322 322 321 322 324 323 322 322 323 323 321 320 324 325 323 323 322 321 322 324 323 323 323 324 324 322 321 322 324 325 327
321 321 320 319 320 320 319 319 321 322 321 320 320 319 321 322 322 322 322 323 323 321 319 322 325 325 325 324 321 320 322 324 324 323 324 324 323 321 321 322 322 324

ECMWFNIL_850_thetae_009.txt.gz
Theta_e
323 324 324 324 325 324 324 324 324 324 326 326 326 326 327 327 328 328 329 329 330 331 331 331 331 332 333 333 334 334 335 335 335 335 336 337 336 337 336 336 336 336
324 325 325 325 324 324 323 323 323 324 326 326 326 327 327 327 327 328 328 328 328 329 329 329 329 330 331 331 332 332 332 333 333 334 334 334 335 335 335 335 336 335
325 326 325 325 324 323 323 322 323 324 325 325 326 326 326 326 326 326 326 326 326 326 327 329 330 330 330 330 331 331 331 331 332 333 333 333 333 333 333 333 334 334
325 326 326 325 324 323 322 323 323 324 324 325 325 326 325 325 325 324 324 324 325 325 326 328 329 330 329 330 330 329 330 330 330 330 331 332 333 332 332 332 333 333
325 326 326 324 323 323 323 324 325 325 325 325 325 325 325 325 324 324 323 324 325 326 326 327 327 327 327 327 328 328 329 329 329 329 329 330 331 331 332 332 333 333
326 325 325 324 323 323 324 325 326 326 326 326 325 325 325 325 325 325 325 325 326 326 326 326 326 326 327 327 329 329 329 330 330 330 330 330 330 331 332 333 333 334
325 325 324 323 323 323 325 326 326 326 326 326 326 326 326 326 326 326 325 325 325 325 325 325 326 327 328 328 328 328 329 330 331 331 331 331 331 331 331 332 333 334
324 324 323 322 323 323 325 326 326 326 326 326 326 326 326 326 326 326 325 325 325 324 324 325 326 327 327 327 327 327 328 329 330 330 330 331 332 331 332 332 332 333
324 324 323 322 322 323 324 325 325 325 325 325 325 325 325 326 326 326 325 325 325 324 324 325 325 326 327 326 326 326 327 327 327 327 327 328 330 331 332 332 333 333
323 323 322 322 322 323 324 324 324 324 323 323 324 325 325 325 326 326 326 326 325 325 325 325 325 326 326 326 326 326 327 326 325 325 326 327 328 329 331 331 333 334
323 323 322 322 322 323 323 323 323 322 321 321 323 325 326 326 326 326 326 325 325 325 325 325 326 326 326 325 326 326 326 325 324 325 326 327 327 327 328 328 330 332
322 322 321 321 322 322 322 322 322 322 321 321 323 325 326 326 326 325 325 325 325 326 326 326 326 326 326 326 326 327 327 325 323 324 325 326 325 325 326 328 329 330
322 321 321 322 322 322 322 322 322 322 321 322 323 325 326 326 326 326 325 324 325 326 326 326 326 325 326 326 326 326 326 325 323 324 325 325 324 323 325 328 330 329
322 322 322 322 322 322 322 322 322 322 323 324 325 326 326 326 327 326 326 325 325 325 325 326 326 326 325 326 326 325 325 324 324 324 325 324 324 324 325 328 330 330
323 322 322 323 323 323 322 322 322 323 323 324 325 326 326 327 327 326 325 325 325 325 325 326 326 326 325 326 326 324 323 324 323 324 325 324 323 324 326 328 329 330
323 323 323 324 324 322 321 322 322 323 323 323 325 326 326 326 326 326 325 325 325 325 325 326 326 326 325 326 325 324 323 323 323 324 324 323 323 325 326 327 328 329
322 323 324 325 325 323 322 321 321 321 321 321 322 324 324 325 325 325 325 324 325 325 325 325 326 326 326 326 325 323 322 323 323 324 324 323 323 325 326 325 327 329
324 325 326 326 326 324 321 320 319 319 319 320 321 322 323 324 324 324 324 325 325 325 324 323 324 325 326 325 324 323 322 322 323 324 324 323 322 324 325 325 327 329
326 327 327 327 326 324 321 319 318 318 320 321 321 322 323 323 323 324 324 324 325 324 323 322 322 324 326 324 322 323 323 322 322 323 324 323 322 322 323 324 326 329
327 327 327 327 325 322 320 319 319 319 320 321 321 322 323 323 324 324 324 325 324 323 323 322 321 323 325 323 321 322 323 322 323 323 324 324 322 321 321 322 324 327
327 327 327 326 323 321 320 319 319 319 320 320 321 323 323 323 323 324 324 324 324 323 323 322 321 322 324 322 320 321 323 324 324 324 324 324 323 322 321 321 322 324
327 328 327 326 323 321 320 319 318 319 320 322 323 323 323 323 323 323 323 324 323 322 323 322 321 322 324 322 321 320 321 323 324 324 324 324 323 322 323 322 320 321
328 327 325 323 322 320 320 320 319 319 320 322 323 322 321 321 320 320 322 322 322 322 323 322 320 322 324 324 323 322 322 321 321 322 325 325 323 323 324 324 321 320
329 325 322 321 320 320 320 320 320 319 319 321 321 320 319 319 319 319 320 321 321 322 323 323 320 320 323 325 324 325 325 323 320 321 324 326 324 322 324 326 323 320
327 324 321 320 320 320 320 320 320 320 319 320 320 320 319 319 319 320 320 321 322 322 323 324 321 319 322 326 325 324 326 326 323 322 323 325 325 323 323 326 324 321
325 324 321 321 322 322 321 321 321 320 319 320 320 319 320 320 319 320 320 320 321 322 322 323 322 319 321 326 325 323 323 323 323 323 323 324 324 324 324 325 324 321

ECMWFNIL_850_thetae_012.txt.gz
Theta_e
320 320 322 324 325 326 326 326 324 323 322 323 324 324 324 325 326 326 328 329 329 327 327 328 328 329 329 330 330 331 333 331 332 334 336 336 334 333 334 335 336 337
320 321 322 325 328 328 326 325 324 324 323 324 324 324 324 324 325 326 327 327 327 326 326 327 329 329 329 330 329 329 330 330 333 336 336 335 334 334 335 333 333 335
320 321 324 327 329 328 325 323 323 324 325 325 325 325 325 325 325 325 326 327 327 327 327 327 328 328 328 328 328 328 328 329 332 334 335 335 334 335 336 335 333 333
320 320 323 325 327 324 322 323 325 325 326 326 326 326 326 326 326 326 327 328 327 327 328 327 327 328 327 327 329 331 331 331 331 333 334 334 334 334 335 335 335 335
319 320 323 325 325 323 322 323 325 326 325 325 326 326 325 325 326 326 327 328 328 327 328 328 329 331 331 330 331 332 332 332 332 331 332 333 334 333 333 333 334 335
319 321 323 324 323 323 323 324 325 326 326 326 325 324 324 324 324 325 326 327 328 328 328 328 328 330 331 331 331 331 331 331 330 329 329 330 331 330 330 330 331 332
320 323 324 324 324 323 323 324 325 325 326 326 325 324 324 324 324 325 326 326 327 327 327 326 326 326 327 329 331 331 329 329 329 328 328 327 326 327 328 328 329 329
321 324 325 324 323 323 325 327 327 327 325 323 323 323 322 322 324 325 326 326 327 327 326 326 326 326 326 327 328 328 327 328 329 329 328 325 323 324 326 327 327 327
320 323 324 325 325 326 329 330 330 330 328 324 322 322 322 322 323 325 326 326 326 326 326 326 326 326 326 326 326 326 326 328 328 329 327 324 323 323 324 325 325 325
320 323 324 326 327 329 330 330 330 330 329 327 324 322 322 322 323 325 326 326 325 325 326 326 326 327 326 326 326 327 327 327 327 327 326 324 322 323 323 324 324 324
321 324 326 327 328 329 329 329 328 328 328 328 327 325 325 325 325 326 327 327 326 325 326 326 326 326 326 326 327 326 327 327 326 325 324 322 322 322 323 323 324 326
324 326 327 328 328 328 328 327 327 327 328 328 328 327 328 328 329 329 328 327 327 326 326 326 326 326 326 326 326 326 326 326 325 324 323 322 321 322 323 323 324 327
325 327 328 328 329 328 327 327 327 328 327 327 327 327 327 328 330 330 329 329 328 326 325 325 325 326 326 326 326 326 326 325 324 323 323 322 322 322 323 324 324 325
324 327 328 327 326 325 325 325 326 326 326 326 326 327 327 327 329 330 329 328 327 326 325 325 325 325 326 326 326 326 326 325 323 323 322 321 322 323 324 323 322 322
322 325 326 325 325 325 325 325 326 326 326 326 326 326 327 327 328 327 326 326 327 327 326 325 325 325 325 326 326 327 326 324 323 323 322 321 322 323 323 323 322 321
322 323 324 325 325 326 326 326 327 326 326 325 325 325 326 326 325 323 325 327 329 330 328 327 326 325 324 324 325 326 325 323 322 323 322 321 322 323 324 323 322 321
324 325 325 326 327 327 326 327 326 325 324 325 325 326 326 326 325 325 327 329 329 330 329 328 328 326 323 323 323 325 324 321 322 323 323 322 323 323 323 323 321 321
325 327 327 328 328 328 327 327 325 323 324 326 327 327 326 325 325 327 328 329 329 330 329 329 329 327 323 322 322 323 323 320 322 324 324 324 323 323 323 322 322 322
326 328 328 328 329 328 327 326 324 324 325 326 327 327 326 326 326 327 329 329 329 329 329 328 328 326 323 321 322 323 322 320 321 323 325 325 324 324 323 322 322 322
327 329 329 329 329 328 326 325 324 324 325 326 327 327 327 327 327 327 328 328 328 328 328 328 327 325 322 321 321 323 322 321 321 322 323 324 325 325 324 322 322 322
328 329 329 328 328 327 326 325 325 325 325 326 327 326 327 326 326 327 327 327 327 327 327 327 327 325 322 321 321 322 324 323 322 321 321 322 322 324 325 323 322 322
330 331 331 330 329 328 327 326 326 326 325 326 326 326 326 325 325 325 326 326 326 326 326 327 327 325 323 321 320 322 325 324 322 321 321 321 321 323 323 323 323 323
331 332 332 331 331 329 328 326 326 326 326 326 326 326 325 324 324 325 325 325 326 326 327 328 327 326 324 322 320 322 325 325 323 321 321 321 321 322 323 323 324 324
329 330 331 332 331 330 328 327 326 325 326 326 326 326 325 324 325 325 325 326 325 326 326 326 326 326 325 322 320 322 325 325 321 320 320 321 321 322 322 323 324 325
327 327 328 330 331 329 328 327 327 326 326 326 327 326 326 325 325 325 325 326 325 325 326 326 326 327 325 323 321 321 324 323 319 319 320 320 321 321 321 322 323 325
325 324 324 327 329 329 328 329 328 327 326 326 326 325 325 325 325 325 326 326 325 326 326 326 327 326 325 323 321 320 320 320 319 320 320 320 320 320 320 321 323 324

ECMWFNIL_850_thetae_015.txt.gz
Theta_e
327 324 321 321 326 331 334 334 335 334 331 330 333 333 331 328 326 326 326 328 329 330 331 331 330 330 330 331 332 331 331 329 329 330 331 331 331 331 332 334 334 335
326 325 324 325 330 333 335 335 335 334 332 332 332 329 327 326 326 326 327 328 329 330 330 330 331 331 330 330 331 331 331 330 329 330 331 330 330 331 332 332 332 333
328 327 328 330 333 335 335 334 333 334 334 335 333 330 328 327 325 325 326 326 328 330 331 330 331 331 329 329 329 329 330 330 330 331 332 330 328 329 330 331 330 330
333 330 330 330 333 334 334 333 333 334 335 335 333 330 327 325 323 324 324 325 326 330 332 332 332 330 329 329 328 328 329 330 331 331 331 329 328 329 331 331 330 329
331 329 327 327 329 331 331 332 334 335 335 335 334 332 330 327 324 323 324 325 327 330 332 332 333 331 330 329 328 328 328 329 331 331 329 328 328 329 330 330 329 328
327 325 325 325 327 329 330 332 334 334 334 334 333 332 331 329 326 325 323 324 327 330 331 330 330 330 329 328 328 328 327 328 330 330 329 329 328 328 329 327 326 326
330 331 330 329 330 331 332 333 333 334 334 334 332 330 330 331 330 328 325 325 326 328 328 328 327 327 327 328 329 328 327 329 331 331 329 328 327 328 327 326 325 324
334 333 332 331 331 331 332 333 333 333 333 333 333 332 332 332 331 328 326 325 326 327 327 327 326 327 327 328 329 327 327 329 330 330 327 326 327 327 326 324 323 323
332 331 331 331 332 332 333 333 332 331 331 332 333 333 332 332 331 327 325 325 327 327 327 327 326 326 328 328 328 328 328 328 327 327 327 326 326 326 324 322 322 323
332 332 332 332 333 333 332 332 330 329 330 330 330 331 331 332 331 330 329 329 329 328 328 328 327 327 328 328 328 329 330 328 326 327 326 325 324 324 323 322 322 325
334 334 334 334 334 332 331 331 330 329 329 329 329 330 330 330 330 330 331 331 332 331 329 329 328 327 328 327 328 330 330 328 327 327 326 323 323 324 323 324 326 326
335 335 335 334 333 332 332 331 331 330 329 329 329 329 329 328 328 329 330 330 332 332 330 328 327 328 329 329 330 329 328 327 327 327 326 324 323 323 324 327 328 325
334 335 335 334 332 332 332 331 331 331 331 330 330 329 328 328 328 329 329 330 331 332 331 330 330 330 332 334 333 330 330 330 329 327 327 326 323 322 325 328 327 323
332 334 334 333 331 332 332 332 332 332 331 331 330 330 329 328 328 328 329 330 331 331 332 331 331 332 335 336 334 331 331 332 329 326 326 326 322 322 325 327 325 323
327 329 331 331 331 332 332 332 332 332 332 331 330 329 328 328 328 329 329 330 330 331 331 332 333 334 335 332 331 329 328 327 324 323 325 325 322 321 324 326 325 323
324 325 327 329 331 333 333 333 332 332 331 330 329 329 328 329 329 329 329 329 329 331 332 333 334 334 332 331 328 325 323 322 321 323 325 324 322 322 324 326 325 323
325 326 327 329 332 333 333 333 332 331 331 330 329 328 329 329 330 329 329 329 330 331 332 333 333 332 331 330 326 322 321 321 321 323 324 323 323 323 324 325 325 324
325 328 329 330 333 333 333 332 331 330 330 330 329 329 329 329 329 329 329 329 330 331 332 332 332 331 330 328 324 322 322 321 321 323 324 323 324 325 324 323 323 324
324 328 330 332 333 334 333 332 331 330 330 329 329 328 328 329 329 329 329 329 330 330 330 330 330 330 330 327 325 323 322 321 321 322 324 324 325 324 323 322 322 322
326 329 332 334 334 333 333 333 331 331 330 329 328 328 329 329 329 328 328 328 328 329 329 329 329 328 328 327 326 323 322 321 321 321 324 325 324 324 323 322 321 322
328 330 332 334 335 334 334 333 332 331 330 329 329 328 329 330 328 328 328 327 327 328 327 328 328 328 328 328 326 324 322 322 321 322 324 324 323 324 324 322 321 322
331 333 333 335 336 335 335 334 333 331 330 329 329 329 330 330 328 327 327 327 328 328 327 327 329 329 329 328 325 324 323 322 321 322 323 324 325 325 325 322 321 321
335 335 335 336 336 335 335 335 333 331 330 329 329 329 330 329 328 327 327 327 327 328 327 327 328 328 328 327 326 324 323 322 321 322 323 324 325 325 323 322 321 320
336 336 335 335 336 335 335 334 333 331 330 329 329 329 329 329 328 328 328 328 328 328 327 326 326 327 327 328 326 324 323 322 321 321 321 323 325 324 322 321 320 319
336 336 336 335 335 335 334 333 333 331 330 329 329 329 329 328 328 327 327 328 327 326 326 325 324 325 326 327 326 322 322 323 321 321 321 322 324 323 320 319 318 319
337 336 336 334 334 334 333 333 332 331 330 330 329 328 328 327 327 327 327 328 328 327 326 325 325 326 327 328 325 322 321 323 322 321 321 322 322 321 319 319 318 318

ECMWFNIL_850_thetae_018.txt.gz
Theta_e
328 326 320 318 317 317 321 323 326 329 326 324 328 333 333 329 327 325 325 326 326 326 328 329 330 331 332 333 332 330 330 329 330 331 331 332 332 331 331 331 332 332
330 328 321 317 318 323 327 331 331 329 326 328 334 335 333 330 328 327 325 324 324 325 327 329 331 332 332 332 331 331 331 330 331 331 330 330 330 329 330 331 331 331
332 328 323 322 325 329 331 330 326 323 326 332 335 336 335 333 332 330 327 325 324 324 326 328 330 330 330 330 330 330 330 330 330 330 329 328 328 328 329 330 330 329
333 328 323 321 323 325 324 322 322 325 331 335 336 335 335 334 333 331 330 330 328 326 328 330 331 331 329 328 328 329 329 328 328 329 329 329 328 328 328 329 330 329
333 330 325 321 320 321 320 320 324 329 332 333 334 334 334 333 332 332 331 330 329 329 331 334 334 332 330 328 328 328 329 330 329 330 329 328 329 329 328 328 329 327
332 329 325 321 320 320 320 322 325 327 329 330 331 331 330 329 330 332 332 329 327 329 331 333 333 331 329 329 329 329 329 330 330 330 329 328 328 327 328 328 328 325
330 331 327 326 327 326 326 326 325 326 329 331 332 331 331 332 333 333 332 328 326 326 326 329 330 329 330 330 330 329 328 328 329 329 328 328 327 326 327 328 326 323
332 335 333 332 332 330 329 328 327 330 332 331 332 333 333 334 333 332 331 330 329 326 324 326 328 330 332 332 331 331 328 327 328 329 329 328 327 326 325 326 326 323
334 334 333 333 334 332 332 333 332 333 331 329 331 332 332 332 331 331 331 331 331 330 328 327 329 332 333 332 330 330 328 327 329 330 329 329 328 326 325 326 325 324
330 329 330 333 335 334 334 335 333 332 331 331 331 330 330 330 330 330 330 329 330 331 330 328 330 332 332 330 328 328 327 327 329 330 330 329 328 327 327 326 325 325
331 331 332 334 335 335 335 333 332 331 330 329 329 329 330 331 330 330 329 328 329 330 330 329 330 332 331 328 327 326 326 326 327 329 330 330 329 329 329 327 325 326
336 333 334 337 337 335 333 331 330 330 330 330 331 331 331 330 330 329 328 329 329 329 330 330 330 332 331 329 327 327 326 324 322 325 327 328 329 329 329 327 326 327
338 334 334 337 335 333 331 330 330 330 330 330 330 329 329 329 329 329 329 329 329 329 330 330 330 331 331 330 329 327 328 326 324 324 325 325 326 326 325 326 327 328
335 334 334 333 329 327 326 325 326 326 327 328 328 329 330 330 330 330 329 328 328 328 329 329 330 331 331 331 331 329 329 329 327 324 323 323 323 324 325 326 326 327
324 325 327 326 323 321 321 322 324 325 327 329 330 330 331 331 330 329 328 326 326 327 328 329 330 331 331 332 332 330 330 328 324 322 321 321 321 323 324 325 326 329
320 320 321 321 321 320 320 322 324 327 329 329 328 329 329 329 329 329 329 328 328 328 329 330 330 331 332 332 331 331 330 327 323 321 322 320 320 322 324 325 326 328
320 321 321 321 321 320 321 321 324 327 328 327 326 327 328 329 329 330 330 330 329 329 330 331 331 331 332 331 331 330 329 327 324 322 322 320 320 322 324 324 324 324
321 321 322 322 322 321 320 322 325 327 326 325 325 327 329 329 329 330 330 330 330 330 330 330 330 330 330 330 330 329 328 328 325 323 322 321 320 322 323 324 323 323
322 322 322 322 322 321 321 322 324 326 327 327 326 327 329 329 329 330 330 330 329 329 329 329 328 329 329 329 329 329 329 328 325 323 322 321 321 322 323 323 322 322
322 322 322 322 323 323 322 323 324 326 328 328 327 327 329 329 329 330 330 330 328 328 328 328 328 328 328 328 329 329 329 327 324 322 323 322 322 321 322 322 322 323
322 322 322 323 324 325 324 325 326 328 329 329 328 328 329 330 330 330 330 329 328 328 328 328 328 328 327 327 328 328 328 327 325 323 323 323 322 322 321 322 323 323
323 323 323 323 325 326 327 327 329 330 329 329 330 331 330 330 329 330 330 329 328 327 327 328 328 328 327 326 326 327 328 328 325 323 322 323 323 322 322 322 321 322
324 324 325 325 326 328 328 330 332 332 329 330 332 332 331 330 330 330 330 329 329 328 328 328 327 327 326 325 325 325 327 327 324 322 321 322 323 322 322 321 321 322
328 327 328 329 330 330 330 331 333 333 331 332 333 332 331 330 330 330 329 329 329 329 329 328 327 326 324 324 324 325 326 327 324 322 321 321 322 323 322 323 322 321
331 331 331 332 334 334 333 332 333 333 333 333 333 332 331 330 329 329 328 328 328 328 328 329 329 327 325 325 325 325 327 328 325 322 321 321 322 323 323 323 322 320
332 333 334 334 335 336 335 333 333 333 333 332 332 332 331 330 329 328 328 328 328 328 328 329 329 327 325 325 324 324 327 328 325 322 321 321 321 322 323 323 323 321

ECMWFNIL_850_thetae_021.txt.gz
Theta_e
318 317 317 316 316 316 317 317 319 319 319 319 320 324 327 328 326 325 325 324 324 324 324 325 327 329 330 331 330 329 329 329 329 329 329 329 329 328 328 328 329 329
319 318 317 317 316 316 316 318 321 322 321 320 321 326 332 331 328 326 325 324 324 323 323 323 325 327 328 328 328 328 328 328 328 328 328 328 327 327 328 328 328 329
319 318 317 316 316 316 317 319 322 323 321 319 322 329 333 331 329 327 325 324 324 323 324 324 325 327 328 327 327 327 327 328 328 328 328 328 327 327 328 327 328 329
319 319 318 317 316 317 318 319 320 320 318 319 324 327 328 327 327 325 323 322 322 322 323 325 329 331 331 331 330 328 327 328 328 328 328 328 328 327 327 327 327 328
320 319 318 317 317 317 318 319 318 318 319 322 325 327 327 328 328 326 324 323 322 323 323 324 329 332 333 333 332 330 329 328 328 328 328 328 327 327 326 326 326 327
320 319 319 318 317 318 319 319 318 319 321 325 328 329 330 331 330 328 327 328 327 326 326 324 326 328 330 332 332 332 331 330 328 327 327 328 329 328 328 327 326 325
319 319 319 318 318 319 319 319 319 321 325 328 329 330 331 331 331 329 329 330 329 329 328 327 327 327 327 329 332 333 333 332 330 328 328 331 331 330 329 329 328 327
321 320 319 318 318 318 319 320 322 325 327 329 330 331 331 331 331 331 330 330 330 329 329 329 329 329 328 328 331 333 333 332 331 329 329 330 331 330 330 329 329 329
326 325 320 318 317 318 320 322 325 328 330 331 331 331 330 330 331 330 330 330 330 329 329 330 330 330 329 328 330 332 331 329 328 327 326 327 326 327 328 328 329 330
332 328 322 318 317 318 321 324 327 331 332 332 331 331 330 330 330 330 330 330 329 328 329 330 330 330 329 328 329 330 329 327 327 327 326 325 324 324 326 327 328 328
334 328 322 318 318 320 322 326 330 333 333 333 332 330 329 329 330 330 330 329 329 329 329 330 330 330 329 328 328 329 329 327 328 328 327 325 324 323 323 324 324 324
331 327 324 319 318 321 322 325 329 331 330 330 328 327 327 329 331 330 330 329 328 329 329 330 330 329 329 328 328 330 330 329 328 328 327 325 322 321 320 320 321 323
326 327 327 320 318 320 319 321 323 324 324 323 323 325 326 328 329 328 327 326 326 327 327 328 328 328 328 329 330 331 331 330 329 328 326 322 321 321 320 319 321 323
326 327 325 319 319 320 319 320 320 320 320 321 323 325 326 326 325 324 324 324 324 324 324 325 326 327 329 330 330 331 332 331 330 328 325 323 321 321 321 320 320 322
330 326 321 319 321 320 320 320 320 320 321 322 322 323 323 324 323 323 324 324 324 324 325 326 326 328 330 331 330 331 331 329 329 328 327 325 323 322 321 320 320 322
331 323 321 321 321 321 321 321 321 321 321 321 322 322 322 323 323 323 324 324 325 326 326 326 326 328 329 329 329 329 329 328 328 328 328 327 324 322 322 321 321 322
329 322 321 322 321 322 321 321 321 321 322 322 322 322 322 323 323 323 325 326 327 328 327 326 326 327 328 328 328 328 328 329 329 328 328 326 323 322 322 321 321 322
326 321 321 322 322 322 321 321 321 321 322 322 322 322 322 322 322 323 325 328 329 329 329 327 326 327 327 328 328 328 328 329 328 329 328 325 323 322 322 321 321 321
324 322 322 322 322 322 322 322 321 321 322 322 322 323 323 322 322 323 326 328 330 330 329 327 327 328 327 327 328 328 327 328 328 328 328 326 324 322 322 322 321 321
323 322 323 323 323 323 322 322 322 322 323 323 323 324 324 324 323 323 326 328 330 330 328 327 328 328 328 328 328 327 327 327 327 327 327 327 324 322 322 322 322 321
322 322 323 323 323 323 323 323 323 323 323 323 323 324 325 326 325 324 325 327 329 329 328 327 327 328 328 327 327 327 326 325 325 326 327 327 324 321 321 322 322 322
323 322 323 323 323 323 322 323 324 323 324 324 324 325 326 327 327 326 326 327 329 330 329 328 328 328 328 328 327 326 325 324 324 325 326 326 325 322 321 321 322 322
328 325 323 323 323 323 322 323 323 324 324 325 326 326 327 328 328 328 328 329 329 330 329 329 328 328 328 328 327 326 325 325 325 325 326 327 326 323 321 320 321 322
332 329 327 324 323 323 323 323 323 323 324 326 327 328 328 329 330 330 329 329 329 329 329 328 328 328 328 327 327 326 325 325 324 325 326 326 324 322 321 320 321 322
332 332 330 328 326 326 325 324 324 324 326 327 328 329 330 331 331 331 330 330 329 328 328 328 327 327 327 328 328 327 326 325 324 325 326 325 322 321 321 321 320 321
334 335 335 333 331 330 328 328 327 327 329 330 330 332 332 332 332 332 331 331 329 328 328 328 328 328 327 327 328 327 326 324 324 325 325 323 322 321 321 321 321 321

ECMWFNIL_850_thetae_024.txt.gz
Theta_e
316 316 315 316 316 316 316 316 317 318 318 318 317 318 322 326 328 327 326 324 324 323 323 323 323 324 327 329 329 328 328 328 328 327 328 328 328 327 327 327 327 326
318 317 316 316 316 316 316 316 317 318 318 317 317 319 322 324 326 326 325 323 323 323 323 323 323 324 326 327 327 327 327 327 327 327 328 328 327 327 327 328 327 327
319 319 317 317 316 316 317 317 317 318 318 317 317 319 321 322 324 324 323 322 322 321 321 322 322 324 325 326 325 325 326 327 327 327 328 328 328 327 327 327 326 326
318 318 318 317 316 316 317 318 318 318 318 317 319 322 324 324 326 326 325 326 325 322 320 320 321 322 323 324 325 326 326 326 327 327 327 327 327 327 327 326 326 325
318 319 319 317 316 316 317 318 318 319 318 318 321 325 328 328 329 328 328 329 328 326 325 324 324 323 323 324 325 326 328 328 328 327 327 327 327 327 327 326 326 326
318 318 318 318 317 317 318 318 319 319 318 320 324 328 329 329 329 329 329 330 329 328 328 327 328 327 327 327 326 327 328 328 328 328 327 327 325 326 328 328 327 327
318 318 318 317 317 317 318 318 319 319 319 322 326 328 329 329 329 329 330 330 330 329 329 328 329 329 329 329 328 327 328 329 329 328 328 326 324 325 327 328 328 328
318 319 318 318 317 317 318 318 319 318 320 324 327 328 330 329 330 330 330 331 331 330 329 328 329 330 330 329 329 328 328 329 329 329 327 326 324 324 324 326 327 327
319 321 320 318 317 317 318 318 318 319 322 325 327 329 330 330 330 330 331 331 331 330 329 329 329 330 330 330 329 329 328 328 329 328 327 326 326 325 324 324 324 325
323 325 322 320 318 317 318 318 318 320 324 326 325 327 329 330 330 329 329 330 330 329 329 329 329 330 330 330 329 329 328 328 329 328 326 326 326 326 324 322 322 322
328 327 324 320 318 317 318 319 318 320 323 323 324 327 330 331 330 329 329 329 330 329 329 329 328 329 329 330 329 329 328 328 329 328 326 326 326 324 322 321 320 320
330 327 324 321 319 317 319 319 319 320 320 321 325 330 331 330 330 329 330 330 330 330 329 328 327 328 329 329 329 328 328 328 329 329 328 327 326 324 322 321 321 320
334 328 325 321 318 318 319 320 320 320 320 322 327 331 331 329 328 327 328 329 329 328 327 326 326 327 327 327 327 327 328 329 330 330 328 327 326 325 324 322 321 321
336 330 325 321 319 320 320 321 321 321 320 322 326 328 327 326 325 325 326 326 325 324 324 324 324 324 324 325 326 328 329 331 331 330 328 327 327 327 325 322 322 321
337 330 323 321 321 320 321 321 321 322 321 321 323 323 323 323 324 325 324 323 323 323 323 324 324 323 323 325 327 329 329 330 329 328 327 327 328 327 324 322 322 322
337 331 324 320 321 321 321 322 321 322 322 321 321 321 321 323 323 324 323 322 322 323 324 325 326 325 325 326 327 328 328 328 328 327 328 328 328 327 324 322 322 321
335 332 325 321 322 322 321 322 322 322 322 321 322 322 322 322 322 322 322 322 322 323 324 326 326 326 326 326 327 328 328 328 328 328 328 328 328 327 325 323 322 322
334 332 326 322 322 323 322 323 322 322 322 322 321 322 322 322 322 322 322 321 322 323 323 325 326 326 326 326 327 328 328 328 328 327 327 327 328 327 327 325 322 321
334 334 329 324 323 323 323 322 322 322 322 322 322 322 322 322 322 322 322 322 322 323 323 323 325 326 327 327 327 328 328 328 328 327 327 326 327 327 327 325 322 321
334 335 331 325 323 323 322 322 322 322 322 322 322 322 322 323 323 323 322 322 323 324 323 324 325 326 327 327 328 328 328 328 327 327 325 325 325 326 327 325 323 321
334 334 331 326 323 323 322 322 322 323 322 322 322 322 323 323 323 323 324 324 324 324 324 325 326 327 327 327 327 328 328 328 327 326 324 324 324 325 326 326 324 322
333 334 333 328 323 323 323 322 322 322 321 322 322 322 323 323 323 324 326 326 326 326 325 326 327 328 328 328 328 328 328 328 327 325 324 324 324 325 326 326 324 321
332 333 334 330 324 323 323 322 322 323 322 322 323 323 323 324 325 327 328 329 329 328 327 327 328 328 328 329 329 328 328 327 327 325 324 323 324 325 326 324 322 320
333 334 335 331 327 327 326 324 323 323 323 323 323 323 324 324 326 329 331 334 333 331 329 328 328 329 329 328 329 328 327 327 327 325 324 324 324 324 325 323 321 320
335 335 332 331 331 332 331 329 328 327 326 324 323 323 323 323 325 327 330 333 332 332 331 330 329 329 329 328 328 328 327 327 327 326 324 324 324 324 324 322 321 321
335 332 331 332 334 335 336 335 334 333 332 329 327 326 326 325 325 326 328 328 327 328 331 331 330 329 328 328 328 328 328 327 326 325 324 324 325 325 324 322 321 320

ECMWFNIL_850_thetae_027.txt.gz
Theta_e
319 318 316 315 315 315 316 316 316 315 316 316 316 317 317 317 319 322 324 325 324 324 324 323 323 323 323 325 326 327 327 327 327 327 326 327 327 327 326 326 327 327
319 318 316 315 315 315 316 316 316 316 316 317 317 317 317 318 320 323 324 325 324 323 323 323 324 323 322 324 325 326 326 326 326 326 327 327 327 327 327 326 327 327
320 318 316 315 315 315 316 316 316 317 317 318 318 317 317 319 321 323 323 323 323 322 322 321 321 321 322 323 323 324 325 325 326 326 327 328 328 328 327 327 327 326
320 318 316 315 316 316 316 316 316 317 318 318 318 317 319 321 322 323 323 325 326 325 322 321 321 321 321 322 322 323 324 325 326 326 326 327 327 327 327 327 327 326
320 318 317 316 317 317 316 316 317 317 318 318 318 318 322 324 324 325 326 328 328 327 325 325 325 325 325 325 325 325 325 325 326 327 327 327 327 327 326 326 327 327
321 319 318 317 318 318 317 316 317 318 318 318 318 321 324 325 325 326 328 328 329 329 328 328 327 327 328 328 328 328 327 326 326 328 329 328 328 327 326 326 326 327
322 320 318 318 319 319 317 317 318 318 318 318 319 323 325 325 325 327 328 328 328 329 329 329 328 328 329 329 329 328 328 327 327 328 329 329 328 327 325 325 324 324
322 320 318 318 320 319 317 317 318 318 319 318 320 323 325 325 326 328 328 327 328 329 330 329 329 328 328 330 330 329 328 327 327 327 328 328 328 326 325 324 324 323
322 320 318 318 319 318 317 317 318 319 319 318 320 323 324 323 325 327 326 327 328 329 330 330 329 328 328 330 331 331 329 328 327 327 327 327 327 326 325 325 324 324
322 321 319 318 318 318 317 317 318 318 318 319 321 323 322 322 323 324 325 326 327 328 329 329 329 328 329 330 331 331 329 328 328 328 327 327 327 325 325 325 324 322
323 321 319 319 319 318 317 317 318 319 319 320 322 321 320 321 322 323 324 327 328 328 329 329 329 329 329 329 329 329 329 328 328 328 328 328 327 326 326 325 323 322
323 321 320 321 321 318 318 317 317 319 319 320 321 321 320 321 322 322 324 326 327 327 328 328 329 329 328 328 327 328 328 328 328 327 328 329 329 328 327 325 325 324
323 321 322 323 322 319 318 317 318 321 322 321 320 321 320 321 321 322 323 325 325 326 327 327 328 328 326 325 325 325 326 326 326 327 328 329 329 328 327 326 326 326
323 321 324 326 323 321 318 317 319 323 324 321 320 321 321 321 321 322 323 325 326 326 327 327 326 325 324 323 322 322 323 324 325 327 329 329 329 328 327 327 327 325
324 322 326 326 325 323 319 319 322 323 321 320 320 321 321 321 321 321 323 326 326 326 326 326 325 324 323 322 322 322 322 324 326 327 328 328 327 327 327 327 327 326
326 324 328 328 326 324 321 323 326 323 320 320 321 321 321 321 321 321 323 325 326 326 325 325 324 323 324 325 324 323 323 325 326 326 326 326 326 326 327 327 327 326
327 327 332 331 327 325 325 326 326 321 320 321 321 321 322 321 321 321 323 325 325 324 324 323 323 323 325 327 327 326 325 326 327 327 327 327 327 327 326 326 327 327
329 330 336 333 328 328 330 328 322 320 321 321 321 322 322 321 321 321 322 323 323 323 322 322 323 324 326 328 328 327 326 326 327 327 327 327 327 327 326 326 326 327
330 332 338 335 330 332 332 326 320 320 321 321 322 322 322 321 321 321 321 322 322 322 322 322 323 324 326 328 329 328 327 327 327 327 327 327 327 327 326 326 326 326
332 332 337 336 333 332 329 323 321 321 321 322 322 322 321 321 321 321 321 322 322 322 322 322 323 325 327 328 329 328 327 327 327 327 327 327 327 327 325 324 325 326
337 335 336 336 334 331 327 323 322 323 321 322 322 321 322 321 321 321 321 321 322 323 323 323 323 324 326 328 329 328 327 327 327 327 327 327 328 326 324 324 324 325
340 336 335 337 335 332 328 324 324 324 323 322 322 321 322 321 321 321 321 321 322 324 324 324 324 324 325 326 328 329 328 328 328 328 328 328 328 326 324 323 324 324
341 337 336 338 336 332 329 326 326 327 326 324 322 322 322 321 321 321 321 322 322 323 324 325 325 325 325 326 328 329 329 329 328 328 328 328 327 326 325 323 324 324
340 338 337 338 335 332 331 331 330 330 328 324 323 323 323 322 322 322 322 322 322 323 325 326 327 327 326 326 327 329 329 330 329 328 328 328 327 327 325 324 324 324
340 340 338 336 334 331 333 334 333 331 329 327 328 330 329 327 325 325 324 323 322 323 324 325 326 327 326 327 327 328 329 329 329 329 328 328 327 326 325 324 324 324
340 340 339 337 335 333 333 335 334 333 333 334 335 336 335 334 333 332 330 328 327 326 326 325 325 326 327 328 328 329 330 329 329 329 328 328 327 325 324 324 323 323

ECMWFNIL_850_thetae_030.txt.gz
Theta_e
339 334 326 320 318 318 317 317 316 316 315 315 315 316 316 317 317 317 317 320 323 325 325 324 324 324 323 323 323 324 326 326 326 325 325 325 325 326 326 326 326 326
338 332 324 320 318 317 316 316 315 315 315 315 315 316 316 316 316 316 317 320 323 324 324 323 323 323 323 323 323 323 324 324 324 324 325 325 326 325 326 326 326 326
337 328 321 319 318 316 315 315 315 316 316 315 316 316 316 316 316 316 318 320 322 323 322 322 322 321 321 321 321 322 323 323 324 325 324 325 325 325 326 327 327 327
333 324 319 319 318 316 315 315 315 316 316 316 316 317 317 317 317 317 318 320 321 322 323 322 320 319 319 320 320 321 322 322 323 325 325 325 325 326 326 327 327 327
328 321 320 319 317 316 315 315 315 316 316 316 317 317 317 317 318 319 319 319 321 324 324 322 321 322 324 324 325 325 325 325 324 325 325 326 326 326 327 327 327 326
331 321 320 320 317 316 315 315 315 316 316 317 317 317 317 318 320 321 321 321 324 326 326 324 325 326 327 327 327 328 328 328 327 326 326 326 327 328 328 328 327 327
336 325 320 321 320 317 316 315 316 316 317 318 318 318 318 318 321 322 322 325 327 327 327 327 328 327 328 328 328 328 329 329 329 328 327 326 326 327 329 329 329 327
333 325 321 322 321 319 317 316 316 316 317 318 318 318 318 319 321 323 324 327 327 327 328 328 328 328 328 328 328 329 329 330 330 329 328 326 325 325 327 329 329 327
330 324 322 323 322 320 317 316 316 316 317 318 318 318 318 319 322 324 326 327 327 327 327 327 327 328 328 328 328 328 329 329 330 330 329 328 326 325 327 328 328 326
333 324 322 323 323 321 318 316 317 317 317 318 318 318 318 319 323 325 327 327 327 326 327 326 327 327 328 328 328 328 328 328 329 329 329 329 327 326 327 328 327 326
335 326 323 323 323 321 319 317 317 317 317 318 318 318 318 320 323 325 326 326 325 325 326 326 327 328 328 328 328 329 328 328 328 328 328 328 327 327 327 327 327 327
335 326 323 324 324 322 319 317 317 317 317 318 318 318 319 321 323 324 324 324 323 324 326 327 328 328 328 328 329 329 329 328 327 327 327 327 327 327 327 328 328 328
340 335 328 324 325 323 319 318 317 316 318 321 321 319 319 321 322 321 321 321 322 323 326 327 327 327 327 328 328 329 328 327 325 324 325 325 325 326 328 329 328 327
347 344 333 327 326 324 320 318 317 317 320 323 324 321 319 320 321 321 320 321 322 323 325 325 325 325 326 327 328 328 326 324 323 322 323 323 324 326 327 328 328 327
346 340 330 328 327 323 321 320 317 317 321 324 324 321 320 320 320 321 320 321 322 323 323 324 323 323 324 325 326 326 324 323 322 322 322 322 324 326 326 326 326 325
344 334 327 328 324 320 321 321 318 318 321 325 325 322 320 320 321 321 321 321 321 322 322 322 322 322 323 324 324 324 323 323 323 322 322 322 323 324 325 325 325 325
343 333 328 327 322 321 324 322 318 318 322 326 326 322 320 320 321 321 321 321 321 321 321 321 322 322 322 323 323 323 323 323 324 324 324 324 324 324 324 325 326 326
342 333 329 328 324 322 325 323 319 319 323 326 325 322 320 320 321 322 321 321 321 321 321 321 321 322 322 323 323 323 323 324 324 325 326 325 325 325 325 326 327 327
342 334 329 328 325 325 328 325 320 320 324 327 324 322 321 320 321 322 321 321 322 321 321 321 321 322 323 323 323 323 324 326 326 327 327 326 326 326 326 327 327 327
343 336 331 327 325 326 327 325 321 321 325 327 325 322 321 320 321 321 321 322 322 321 321 321 321 322 323 324 323 323 325 327 328 328 328 328 327 326 327 327 327 327
344 341 338 332 325 325 327 327 326 324 326 329 326 321 320 321 321 321 322 322 322 322 321 321 321 322 323 324 324 325 326 327 328 328 328 328 327 326 327 327 327 327
345 344 343 336 327 326 328 328 327 328 329 330 326 321 320 321 320 321 322 322 323 322 322 322 321 321 323 323 325 326 327 327 326 326 327 327 327 327 328 328 328 327
347 345 343 337 329 328 330 328 329 332 331 329 326 322 321 321 322 323 324 326 327 327 327 326 324 322 323 324 325 327 328 328 327 326 326 327 327 327 328 328 328 327
346 344 342 336 330 330 333 331 331 333 331 329 328 326 323 324 326 327 329 331 331 330 330 329 326 324 324 325 326 327 328 329 330 329 328 328 328 328 328 328 327 326
346 344 343 337 332 331 334 333 332 332 331 331 332 330 327 327 329 330 332 333 333 332 331 330 329 327 327 327 328 328 328 329 330 331 330 329 329 329 329 328 326 325
346 345 343 338 332 332 334 334 332 332 332 332 333 333 331 331 332 333 335 335 335 335 334 334 333 333 332 332 332 332 332 331 332 333 333 331 330 330 329 328 326 325

ECMWFNIL_850_thetae_033.txt.gz
Theta_e
341 341 341 341 342 340 333 327 322 318 317 316 316 315 315 315 315 316 316 316 316 316 319 323 324 324 324 324 324 324 325 326 327 327 326 326 326 326 328 327 327 328
341 342 341 342 342 337 330 324 320 317 316 316 315 315 315 315 315 316 316 316 316 316 319 322 324 324 323 323 323 323 324 324 325 325 325 325 325 326 327 327 328 329
340 341 342 342 341 335 328 323 319 317 316 315 315 315 315 315 315 316 316 316 316 317 319 322 323 323 323 323 323 323 323 323 324 325 326 325 325 325 326 327 328 329
340 341 342 342 339 334 330 325 319 317 316 314 315 315 315 315 316 316 317 317 316 317 319 321 322 322 322 321 320 320 320 321 323 324 326 326 325 326 327 327 328 328
340 340 342 342 338 335 333 326 319 317 315 314 315 316 315 316 316 317 317 317 317 318 319 320 322 322 321 320 319 321 322 323 324 325 326 326 325 326 327 327 328 328
340 341 342 341 338 336 332 324 318 317 315 315 316 316 316 316 317 317 317 318 318 318 318 321 322 321 321 322 324 325 326 327 327 327 327 326 325 325 325 326 327 328
341 342 343 342 340 338 330 321 318 317 314 315 316 316 316 317 317 317 318 319 320 319 320 322 324 322 323 325 326 326 327 327 328 328 328 328 327 326 325 325 326 328
341 342 344 344 344 342 332 321 319 317 314 315 316 316 317 317 317 317 318 321 321 321 322 324 324 324 325 327 327 327 328 328 329 329 329 329 328 328 326 326 325 326
341 344 347 346 347 343 331 321 320 317 315 315 316 316 317 317 318 318 319 321 321 322 324 324 325 325 326 327 327 328 328 328 329 329 329 329 329 328 327 327 326 326
348 350 350 349 348 339 324 319 320 318 316 316 316 317 317 317 318 317 319 321 322 323 324 324 325 325 326 326 327 327 328 328 329 329 329 329 328 327 327 327 326 325
351 351 348 348 348 338 322 319 321 318 317 317 316 317 317 317 318 318 319 321 321 322 323 324 325 325 326 327 327 328 328 328 329 329 329 329 328 327 327 327 326 325
347 344 343 345 347 338 324 320 321 319 319 318 316 317 317 317 318 318 319 320 321 322 323 324 325 326 327 328 328 329 329 329 329 329 329 328 326 325 325 325 326 325
342 340 341 343 345 336 324 321 322 321 321 318 317 319 318 318 318 318 319 320 321 322 323 324 325 326 328 328 328 328 328 328 328 328 327 326 324 323 323 323 325 325
346 342 339 342 345 337 324 322 323 322 321 319 318 320 321 320 319 318 319 321 321 323 323 323 325 326 327 327 327 327 326 326 326 325 324 323 322 322 322 322 323 325
349 346 343 345 346 336 324 321 321 321 321 319 318 322 324 322 320 319 319 321 322 322 323 323 324 324 325 326 326 325 325 324 325 324 323 322 322 322 321 322 322 324
351 350 349 349 347 336 325 322 322 321 321 319 318 323 325 324 322 321 319 321 321 321 322 322 323 322 323 324 324 323 323 323 323 323 323 323 323 323 322 322 322 323
351 350 350 349 347 339 329 324 323 322 321 319 318 322 326 326 324 321 320 321 321 321 321 322 321 321 322 322 323 322 323 323 322 322 323 323 323 323 323 323 323 323
350 350 350 348 348 344 333 325 324 322 320 319 318 321 326 327 324 321 320 321 321 320 321 321 321 321 321 321 322 322 323 323 322 322 323 323 323 323 323 324 324 324
351 350 350 348 348 344 333 325 325 322 320 320 319 321 325 326 325 323 321 321 320 320 320 321 321 321 321 321 322 323 325 325 324 323 323 322 322 323 324 325 325 325
351 350 350 349 349 345 333 326 326 323 320 320 319 320 325 326 324 323 322 322 321 320 320 321 321 322 322 321 322 325 328 329 327 325 324 324 323 324 325 325 326 326
350 350 350 350 349 345 334 327 327 324 321 321 320 320 324 325 324 324 324 324 323 321 320 321 321 321 322 322 322 326 329 331 330 328 326 325 325 326 326 327 327 327
350 350 350 349 348 346 339 331 329 325 322 322 320 320 323 324 324 324 325 325 325 322 320 321 321 321 322 323 324 327 331 332 331 330 329 328 328 328 328 328 328 328
350 349 349 348 348 347 344 339 335 329 324 323 322 321 323 325 325 325 326 327 325 321 321 322 322 322 325 328 328 330 332 332 332 331 331 331 331 330 330 329 329 328
350 349 349 349 348 347 345 343 338 331 325 324 323 323 323 325 326 326 328 328 324 322 325 327 326 327 330 332 331 329 329 330 330 331 332 332 333 332 332 331 330 329
349 349 349 348 347 346 345 343 337 329 326 326 324 323 322 322 325 328 330 329 327 326 329 331 331 333 334 334 332 330 329 330 331 332 333 333 333 333 333 333 332 331
349 349 349 348 347 345 343 342 336 328 326 327 323 322 323 325 330 332 332 332 332 331 331 332 334 336 337 336 334 333 333 333 333 333 334 334 334 333 332 332 331 330

ECMWFNIL_850_thetae_036.txt.gz
Theta_e
346 347 347 347 347 347 347 346 344 344 346 344 338 332 329 327 329 329 325 322 318 317 317 317 324 331 330 328 327 326 327 327 327 328 328 330 329 327 327 326 328 329
347 347 346 347 347 346 345 344 342 344 344 340 336 333 331 328 328 326 321 319 317 317 318 317 322 327 326 326 325 324 325 325 326 328 327 327 327 326 326 327 328 329
347 347 346 346 345 344 343 342 342 343 342 339 336 333 330 327 326 323 318 317 316 317 318 317 318 321 322 324 324 323 323 323 326 330 327 325 326 326 326 328 328 329
347 348 347 346 345 343 342 341 342 341 341 338 331 326 325 324 322 320 317 316 316 317 317 316 317 319 321 322 322 323 324 322 323 325 325 324 325 325 327 328 327 328
347 347 348 347 345 343 341 341 342 341 339 334 326 320 319 319 318 318 316 315 316 316 317 317 317 318 320 321 321 322 324 327 326 323 322 326 328 328 328 329 328 327
347 348 348 348 346 342 341 342 343 341 336 329 322 317 316 315 316 316 316 316 316 317 318 318 318 320 321 321 320 321 324 331 334 329 325 328 330 330 330 329 327 327
347 348 348 348 346 342 341 342 343 340 332 324 319 316 315 315 315 316 316 316 317 317 318 320 321 321 322 322 321 321 324 329 331 329 326 328 329 329 330 328 326 325
347 348 348 349 347 343 341 342 343 340 330 321 317 316 315 315 315 316 316 317 317 317 318 320 320 320 322 323 322 323 327 329 329 328 328 329 329 329 329 329 328 326
347 348 348 349 346 342 342 342 343 341 330 319 317 317 315 316 316 316 316 317 317 317 318 320 320 321 323 325 325 325 327 329 331 331 330 331 331 330 329 330 330 330
347 348 348 348 343 340 342 343 344 343 332 320 318 317 316 316 316 316 317 317 317 317 319 320 321 322 324 325 326 325 326 328 330 330 330 330 330 330 330 331 332 332
347 347 348 349 343 338 341 343 345 345 333 322 318 317 318 318 317 316 317 317 317 318 318 321 321 323 325 325 325 325 326 328 330 330 329 329 329 329 329 330 331 332
345 346 347 348 343 337 340 344 345 343 331 321 319 318 320 323 319 316 317 317 317 318 318 320 322 323 324 325 325 326 327 329 330 330 329 329 329 329 329 330 330 329
345 345 345 342 337 335 339 343 345 343 331 321 321 319 319 322 320 317 317 318 317 318 318 320 322 323 324 324 325 327 328 329 329 329 329 329 329 328 330 331 330 328
348 345 343 339 335 334 337 340 343 345 337 325 321 320 319 320 320 318 318 318 317 318 318 319 322 323 324 325 326 327 328 328 329 329 329 329 329 328 328 330 330 330
352 346 345 343 339 335 335 337 340 343 343 333 323 320 320 320 319 318 320 320 318 318 318 319 321 323 324 325 326 327 328 329 329 329 328 328 330 330 329 328 328 329
351 349 349 349 346 340 336 337 339 343 345 339 328 321 320 320 318 319 321 321 319 318 318 318 320 322 323 324 326 328 329 330 330 330 327 328 330 330 329 329 329 329
351 351 351 351 350 347 341 338 339 344 346 341 331 323 321 319 318 320 321 322 321 319 318 319 320 322 323 323 325 328 329 329 330 331 330 329 329 329 329 329 330 330
350 351 350 351 352 351 348 342 338 341 346 343 334 325 322 319 319 321 323 323 322 320 319 319 320 321 322 322 324 327 329 328 328 330 332 332 331 332 331 331 331 331
349 351 349 350 351 352 351 348 341 340 344 345 337 327 323 320 319 323 325 324 323 321 320 320 320 321 321 321 323 326 328 327 326 327 331 331 331 332 332 331 331 332
349 350 349 349 351 352 352 351 346 342 344 346 340 328 323 321 319 323 327 326 325 323 321 320 321 321 321 320 321 323 325 326 326 327 329 329 330 331 331 330 331 331
349 349 349 349 350 351 352 352 349 345 345 347 339 326 322 322 319 321 325 326 325 324 322 322 322 322 322 321 321 322 323 325 327 328 329 330 330 331 331 330 330 331
349 349 350 350 351 352 351 351 350 348 347 348 340 326 321 322 320 321 324 324 325 324 323 323 323 324 325 324 321 322 324 326 328 329 330 331 332 333 333 332 332 332
348 349 351 351 351 352 352 351 351 349 349 349 341 326 321 322 321 322 323 322 323 324 324 324 325 327 327 324 322 325 328 329 329 329 330 330 332 333 333 332 332 332
350 350 351 351 351 352 352 351 351 349 349 349 340 327 324 326 323 321 322 321 320 323 323 322 325 330 329 325 325 329 332 333 332 331 330 330 330 331 332 334 334 333
351 351 351 351 351 352 352 351 350 348 348 349 342 329 325 328 326 323 322 321 321 325 327 325 327 331 332 329 329 333 335 336 336 335 333 333 333 334 335 336 335 334
351 351 351 351 351 351 351 349 348 347 347 347 341 330 325 328 331 329 327 324 324 328 331 332 333 333 333 333 333 335 337 337 336 336 335 335 336 336 336 335 334 333

ECMWFNIL_850_thetae_039.txt.gz
Theta_e
344 344 344 344 343 345 347 347 346 346 348 351 350 350 349 347 347 345 344 341 329 321 325 328 326 327 333 337 336 335 337 337 338 338 336 333 335 336 336 335 334 332
345 345 344 344 345 345 346 345 346 346 346 348 350 350 350 347 346 343 340 336 328 321 322 324 321 323 331 338 337 335 336 336 336 338 338 335 333 335 334 334 334 330
346 346 346 346 346 345 345 345 345 345 344 345 348 350 350 347 342 337 331 326 321 320 322 322 321 323 328 334 337 336 336 336 337 338 338 335 332 333 334 335 335 333
346 347 347 346 346 346 346 346 344 343 343 344 348 350 349 344 336 328 323 319 316 318 320 321 322 324 326 327 330 334 336 336 336 338 339 336 332 332 335 336 335 335
346 346 347 346 347 347 347 345 344 344 343 345 349 349 343 333 327 323 319 317 315 316 318 318 320 323 325 324 323 328 335 338 337 336 336 336 335 335 336 336 335 335
346 346 346 346 347 348 347 345 345 345 343 345 348 346 337 326 321 320 318 317 316 316 318 318 318 319 322 323 321 322 329 335 338 337 334 335 337 337 337 336 336 334
347 346 346 346 346 347 347 346 345 344 344 345 346 344 336 325 319 317 316 316 317 318 319 319 319 318 320 322 322 320 322 327 335 339 337 337 337 337 337 336 335 332
346 347 346 346 346 347 347 347 346 345 343 344 344 341 333 323 318 317 316 315 317 318 318 319 321 320 319 321 321 321 319 322 331 337 337 337 338 338 337 336 335 334
346 347 347 347 347 346 347 347 347 347 344 342 343 340 332 322 318 318 317 315 316 316 316 318 320 320 319 320 320 320 320 324 333 337 337 337 338 338 338 337 336 336
345 346 347 347 348 347 347 348 349 349 346 341 342 341 331 322 319 318 317 316 316 316 317 317 318 318 319 320 320 320 320 324 332 336 336 337 338 338 338 338 336 336
344 345 346 346 348 348 347 347 350 352 348 342 341 341 332 324 321 318 316 316 315 316 317 317 317 317 319 320 320 321 321 323 327 330 333 336 337 337 336 335 333 332
344 344 344 346 347 347 347 347 351 355 352 343 339 341 336 327 322 318 317 316 316 316 317 317 317 317 318 320 320 320 322 324 325 328 333 335 337 337 335 333 332 331
342 343 343 345 345 345 347 347 350 355 355 346 339 341 339 331 324 319 317 317 316 317 317 317 317 318 318 320 320 321 324 324 325 332 336 338 338 338 337 335 335 335
341 344 344 344 345 345 345 346 348 353 354 348 340 340 342 336 327 321 318 318 318 318 317 317 317 317 318 319 320 321 323 323 327 334 338 338 339 339 338 337 337 336
344 345 345 345 347 347 345 345 348 350 351 348 342 340 343 339 331 323 319 319 320 320 317 317 318 318 318 319 320 320 321 322 328 335 338 338 339 339 337 337 336 335
348 348 346 346 347 348 348 346 346 349 350 348 344 341 343 342 334 325 320 319 321 321 318 316 318 318 318 318 319 320 321 322 326 333 336 338 339 339 337 336 336 335
352 350 349 348 349 352 354 352 348 349 350 349 346 342 343 344 337 327 322 320 321 320 318 317 319 320 319 318 319 320 321 323 327 332 336 337 339 339 338 337 336 336
353 352 351 351 350 353 357 357 353 350 351 351 347 343 344 345 340 332 325 321 320 320 318 318 322 323 320 318 319 320 321 323 326 331 335 337 338 338 338 337 337 337
353 352 352 352 351 352 356 360 358 355 354 353 350 345 344 345 344 338 330 322 320 321 319 319 323 325 321 318 318 319 321 322 323 326 330 334 337 337 337 337 337 336
352 352 352 352 352 354 357 359 359 358 357 356 354 349 347 347 346 343 335 326 320 319 319 321 324 324 322 319 319 319 320 322 323 323 326 330 334 335 336 336 337 337
352 351 350 351 354 356 357 358 358 359 358 357 355 352 350 349 347 344 338 328 321 319 319 321 324 324 322 321 320 321 322 322 322 322 323 328 332 334 335 335 335 336
349 348 349 354 356 357 356 356 357 358 356 356 355 353 351 349 347 345 339 328 323 321 319 322 325 324 323 323 322 324 325 324 322 322 323 326 329 332 334 335 336 336
351 353 354 357 357 356 354 355 356 356 355 355 355 353 351 350 349 345 338 329 325 321 319 323 327 326 325 324 323 325 328 327 324 324 324 326 327 329 332 333 335 336
355 357 357 357 356 355 354 355 356 355 355 354 354 353 351 349 348 344 340 335 327 322 322 326 327 326 325 323 327 333 334 332 330 329 330 330 329 330 332 334 335 336
357 357 356 356 355 354 355 355 355 355 355 354 353 353 350 348 347 344 341 338 327 321 324 324 324 327 328 329 336 339 335 331 331 331 333 335 335 335 336 337 337 336
356 356 355 355 355 355 355 354 354 354 354 353 352 351 349 346 344 342 340 337 329 323 323 322 325 331 332 333 337 336 330 325 324 326 333 338 338 337 338 338 336 335

ECMWFNIL_850_thetae_042.txt.gz
Theta_e
343 343 344 345 344 344 347 347 343 343 345 344 342 342 341 339 340 345 347 340 328 320 317 318 321 322 322 320 320 330 336 331 332 336 334 331 332 335 337 337 334 332
343 343 343 344 343 342 345 345 343 343 345 345 344 343 344 342 340 343 346 343 331 320 315 316 318 318 318 319 318 322 328 328 330 336 336 332 331 333 336 339 338 336
344 343 343 343 342 341 343 344 343 344 345 345 345 347 348 347 343 341 342 340 331 320 315 315 316 317 317 319 322 322 324 325 326 334 338 334 330 329 333 337 339 339
345 344 343 342 342 341 342 343 343 345 346 345 346 348 350 349 346 341 336 334 328 318 315 315 315 318 317 319 323 325 324 325 324 329 337 337 332 327 328 335 338 338
346 345 343 342 342 342 341 342 342 344 346 346 345 346 348 349 346 341 333 330 326 319 316 317 316 317 317 318 321 324 325 325 322 324 332 335 332 325 325 333 338 338
347 346 345 344 343 343 342 341 341 343 345 345 345 345 348 348 345 341 334 328 324 319 317 318 318 317 317 318 320 323 325 325 322 322 324 326 325 323 327 334 337 338
348 347 346 345 345 344 344 343 342 343 344 345 346 346 347 348 344 340 336 328 322 319 317 318 318 317 318 319 319 320 323 325 328 327 322 320 320 322 330 337 338 338
347 347 346 346 347 346 346 346 345 343 344 346 348 348 348 347 343 339 337 331 323 319 318 318 319 319 318 318 319 319 320 322 328 333 329 323 321 322 328 335 337 336
348 347 345 346 347 347 347 348 347 346 344 346 348 350 350 348 344 340 336 331 325 321 320 319 318 319 319 320 318 318 320 319 322 331 331 325 321 321 324 331 335 335
348 347 346 347 346 346 347 347 347 346 345 346 348 351 351 349 345 341 337 332 327 322 321 319 317 318 320 321 319 317 320 320 320 323 325 321 318 318 323 331 335 335
346 347 347 346 345 346 346 346 346 347 346 346 348 351 352 349 346 343 340 335 328 322 319 318 317 318 319 320 319 318 318 320 320 320 320 319 318 320 327 335 338 337
345 347 347 346 346 347 347 348 349 351 351 349 347 350 352 349 346 344 343 338 329 321 319 319 317 317 318 318 318 318 319 319 320 320 320 319 319 320 328 335 338 338
344 344 346 347 347 348 350 352 353 354 356 355 351 351 352 352 349 345 343 340 333 324 320 318 317 316 317 318 318 318 319 319 320 320 320 320 320 319 324 332 336 335
343 343 345 346 347 347 350 354 356 356 358 358 356 354 353 354 353 348 343 341 337 328 321 317 316 316 316 317 318 318 318 319 320 320 319 319 320 318 322 332 337 336
344 344 344 346 348 350 351 354 356 357 358 359 359 356 354 354 355 351 345 342 339 332 324 318 315 316 316 317 318 317 318 319 319 319 320 319 322 325 329 335 338 339
348 346 346 347 350 352 352 353 356 357 358 358 359 357 355 354 354 352 348 343 341 336 327 320 316 316 316 317 318 317 318 319 319 319 319 319 324 330 334 337 339 338
354 350 350 351 351 353 355 355 356 357 357 357 357 358 357 355 354 353 349 345 343 339 330 322 318 317 317 318 318 317 318 319 319 319 319 320 326 331 332 334 337 337
358 357 356 355 356 358 358 357 357 357 357 357 357 357 357 357 355 353 350 347 345 341 333 325 320 317 318 319 318 317 318 319 319 320 320 320 325 329 330 332 336 337
362 362 361 360 360 359 359 359 359 358 357 356 357 358 357 357 355 352 350 347 344 342 337 328 321 318 318 319 318 318 318 318 319 320 321 322 325 329 329 331 335 338
365 365 365 363 361 360 359 360 359 358 357 357 357 358 358 358 355 351 349 346 344 342 339 332 325 321 319 320 319 318 317 318 319 320 322 323 325 328 329 330 334 338
367 367 366 364 362 360 359 359 358 357 356 356 358 358 358 357 355 351 347 344 343 342 340 336 331 327 323 320 318 318 317 317 319 320 322 323 323 325 328 328 329 334
368 366 364 363 361 360 360 360 358 356 355 357 358 359 358 357 355 352 347 343 342 342 341 339 336 333 327 321 318 319 318 318 318 319 320 322 323 325 324 322 324 331
367 365 363 362 360 360 361 359 357 356 357 358 358 358 358 357 355 353 349 346 344 342 342 341 339 337 331 323 319 320 320 320 319 319 319 321 325 326 322 321 327 333
366 364 361 359 358 359 359 356 355 356 358 358 358 359 358 356 355 353 350 349 346 344 343 342 340 338 332 324 321 323 323 322 323 324 324 324 326 326 323 323 327 330
363 362 359 355 355 356 355 353 353 355 357 358 357 358 357 356 355 353 351 349 348 346 345 343 341 339 331 325 325 325 323 325 329 331 329 327 328 327 323 323 325 327
355 355 354 352 352 353 353 353 353 354 356 357 356 356 357 356 355 353 351 350 349 347 345 344 342 337 331 328 327 324 325 331 335 333 329 327 327 325 322 323 325 324

ECMWFNIL_850_thetae_045.txt.gz
Theta_e
337 338 340 342 344 345 346 346 346 348 348 345 343 342 342 341 341 342 342 340 339 331 319 315 317 318 318 321 326 332 332 330 328 325 325 328 329 329 329 328 329 332
336 337 341 342 343 344 346 346 344 345 346 344 342 341 341 342 341 343 342 339 338 332 320 315 316 316 317 319 323 327 327 327 326 323 322 327 330 330 329 328 327 328
337 337 340 343 343 343 345 346 345 344 344 343 342 342 342 343 342 342 341 339 337 332 321 315 316 317 317 317 318 320 321 322 323 321 321 326 329 329 329 328 326 325
338 337 340 342 342 342 344 345 346 344 344 344 342 342 343 343 343 342 341 340 337 331 322 316 316 316 317 317 317 317 318 319 320 321 322 325 327 327 328 327 325 326
338 339 340 340 341 342 343 345 345 344 344 344 343 342 343 344 344 343 342 341 339 334 326 318 315 316 316 317 317 317 318 318 319 321 323 325 326 326 325 324 323 327
338 339 340 340 340 341 342 344 344 343 343 343 343 342 343 344 344 344 343 342 341 338 330 319 315 317 316 317 318 317 317 317 318 321 322 325 328 327 323 322 322 324
338 339 340 340 340 340 342 343 343 343 342 342 342 342 343 344 344 344 342 342 341 340 334 324 317 316 316 317 318 317 317 317 318 320 321 324 328 326 322 321 321 322
339 339 341 341 342 342 342 342 343 343 342 342 342 342 343 344 344 344 343 341 341 340 338 330 320 316 316 317 317 317 318 318 318 319 320 322 324 323 320 320 322 323
341 340 341 342 343 343 343 342 342 342 342 342 342 342 344 344 345 344 342 341 340 339 339 335 324 317 316 317 316 317 318 318 318 318 318 319 322 321 319 320 322 323
345 342 342 342 343 343 343 342 341 342 342 342 342 342 344 344 345 345 343 341 341 339 339 338 329 319 316 317 317 317 319 319 318 318 318 318 320 321 319 319 320 322
347 345 344 343 343 343 343 343 342 342 342 343 343 342 343 344 345 345 344 342 341 340 340 340 333 323 317 317 317 318 320 319 318 318 319 318 319 320 321 320 319 321
349 348 346 345 343 343 343 343 344 343 344 344 344 344 343 343 343 343 343 341 341 341 341 341 337 328 319 317 317 318 320 320 319 319 319 319 319 320 320 320 319 321
350 347 347 346 346 344 343 344 345 345 346 345 345 345 345 344 343 343 343 342 342 342 342 342 340 332 323 320 318 318 320 321 319 318 319 321 321 320 320 319 319 320
349 347 347 347 347 345 345 346 347 347 347 347 346 347 347 346 346 344 344 345 345 344 344 344 342 336 328 322 318 318 320 321 320 319 319 320 321 322 321 320 320 321
350 348 348 347 348 348 347 347 348 349 350 349 349 348 348 348 348 348 348 347 347 347 347 346 344 339 332 325 320 318 320 322 322 320 318 319 321 323 322 322 322 322
354 350 349 348 348 348 347 347 348 350 351 352 351 350 350 350 350 350 351 350 349 349 348 348 346 342 336 330 323 319 319 322 322 320 319 319 321 322 322 322 321 322
358 353 351 349 347 347 347 348 350 352 354 354 354 353 353 353 352 352 351 352 352 351 350 350 348 344 340 334 327 320 318 319 320 319 318 319 321 322 321 319 321 326
360 357 354 350 349 349 348 350 352 354 356 356 356 355 355 356 355 354 353 353 353 353 353 352 350 346 343 338 331 322 317 318 319 318 318 319 321 322 321 323 330 335
360 360 357 354 352 351 352 353 354 356 358 357 357 357 357 358 358 357 356 355 355 355 354 352 351 348 344 341 334 324 318 316 318 317 317 319 321 323 326 330 333 334
360 361 360 357 355 354 355 356 356 358 358 358 358 358 358 359 359 359 358 357 356 356 354 353 351 349 346 342 336 327 318 316 320 320 319 320 322 325 329 330 329 326
360 361 361 360 359 357 357 357 358 359 359 359 359 359 359 360 360 360 359 358 357 356 355 354 352 350 347 343 338 331 321 318 321 321 321 322 323 326 330 331 328 324
361 362 362 362 361 359 359 359 360 360 360 360 360 359 360 360 360 360 359 358 358 356 355 354 352 350 347 342 339 333 324 320 318 318 322 326 327 330 333 333 328 323
361 362 363 363 362 361 361 361 361 362 361 361 360 360 360 360 359 360 359 359 358 356 355 353 350 348 346 342 339 335 330 328 323 320 326 332 334 335 332 330 328 325
362 363 363 363 363 363 363 363 362 362 361 360 360 359 359 359 358 358 358 358 358 356 355 352 349 348 345 343 341 338 336 334 327 325 331 336 337 336 330 326 328 327
363 364 364 364 364 364 364 363 362 361 360 359 358 358 358 358 357 357 358 358 358 356 354 351 348 347 344 343 342 339 339 335 326 324 332 336 334 333 330 326 325 323
365 365 365 365 365 365 364 362 361 361 360 359 357 357 358 358 358 358 358 358 357 355 353 350 349 346 344 343 342 341 341 335 324 320 326 329 328 328 328 326 324 321

ECMWFNIL_850_thetae_048.txt.gz
Theta_e
337 335 336 337 339 340 341 342 343 344 345 345 344 344 342 340 342 345 345 342 340 339 339 332 322 317 316 318 320 319 322 324 321 320 323 327 328 328 328 327 327 328
338 336 336 336 337 338 340 341 342 343 344 345 344 343 342 341 341 343 343 342 340 339 338 334 324 317 316 318 319 319 320 322 321 319 320 323 327 328 327 328 328 328
339 338 337 337 337 338 338 340 341 343 344 345 345 343 343 342 342 342 341 341 340 339 338 336 329 320 316 317 318 318 319 320 320 318 318 319 324 327 328 328 329 328
342 340 338 337 337 337 338 339 341 342 345 345 345 344 343 343 343 342 342 341 340 340 338 337 334 324 317 317 318 318 319 319 319 319 318 317 319 324 328 328 329 328
345 341 340 339 338 338 338 339 340 341 344 345 345 345 344 344 344 343 343 342 340 340 339 338 336 326 317 316 317 318 319 319 318 319 318 317 318 321 326 328 329 328
348 345 343 342 341 340 339 339 340 341 342 343 344 345 345 345 344 343 342 342 341 340 340 339 337 328 319 316 317 317 318 318 319 318 317 317 318 320 324 327 328 328
350 348 346 345 343 342 341 339 340 341 341 342 343 344 344 344 344 343 342 342 342 341 340 340 338 333 323 317 316 317 317 318 318 318 317 317 318 320 322 325 326 326
351 350 348 347 346 344 343 340 340 341 342 342 342 342 343 343 342 342 342 342 343 342 341 340 340 338 329 319 316 316 317 317 317 318 318 318 318 319 321 323 325 325
352 352 351 350 348 346 344 341 340 341 342 342 342 342 342 342 342 342 342 343 343 342 342 341 340 341 335 325 317 316 317 317 318 318 318 318 319 319 320 322 323 323
353 353 352 352 350 347 344 342 340 341 341 341 342 342 342 342 341 342 342 343 343 343 343 342 341 342 340 332 324 318 316 317 317 318 319 319 319 319 320 321 321 321
353 353 353 352 351 347 345 342 341 342 341 341 341 342 342 342 341 342 343 343 344 343 343 343 342 341 341 338 332 322 317 317 317 318 319 319 318 319 319 319 320 320
354 353 352 351 350 347 343 342 342 342 340 340 341 341 342 342 342 342 342 343 344 345 344 344 342 341 340 341 337 328 319 316 317 317 319 320 319 318 318 318 319 320
353 352 351 349 348 344 342 341 342 341 341 341 341 341 342 341 342 341 341 343 345 346 346 345 343 342 341 341 340 335 325 318 316 317 318 320 319 318 318 318 319 321
353 352 349 348 346 343 341 341 342 341 342 342 343 342 341 341 340 341 342 345 347 347 347 346 345 344 343 343 342 340 332 321 316 317 319 321 320 318 318 318 319 321
354 352 351 349 348 345 342 342 342 342 342 343 343 343 342 341 341 341 343 345 347 348 348 347 346 344 344 344 343 343 339 328 318 317 319 321 322 320 319 318 319 320
355 354 353 352 351 349 345 343 343 343 343 343 343 343 342 342 343 344 345 345 346 348 348 347 347 345 344 345 345 345 343 334 321 316 319 321 321 320 319 319 319 319
356 355 355 354 353 351 348 346 346 346 345 344 343 343 343 344 346 346 347 347 348 348 348 348 347 345 345 347 348 347 345 339 328 319 318 320 320 320 320 319 319 320
355 355 356 355 354 353 351 350 349 349 349 347 345 345 344 345 347 348 348 349 350 350 350 349 348 347 348 349 349 348 346 345 338 324 317 320 321 320 321 320 319 319
355 356 356 355 354 354 353 354 353 353 352 350 347 345 346 348 348 349 350 350 351 351 350 350 350 349 350 351 350 348 347 347 344 332 319 318 320 319 320 321 320 320
356 356 356 355 355 355 356 356 355 355 354 352 350 349 349 350 350 350 350 351 351 351 351 351 351 351 352 352 351 351 349 347 345 337 324 319 319 318 319 322 322 321
356 356 356 357 357 357 357 357 355 355 355 354 354 353 351 351 350 351 351 351 352 352 352 353 353 353 354 354 352 353 351 346 344 340 330 321 318 317 319 322 324 324
357 356 357 358 359 359 358 357 356 355 355 354 355 354 353 353 353 352 352 352 353 354 354 354 355 355 355 354 354 354 350 346 344 342 336 327 320 317 319 323 326 327
357 357 357 359 360 360 360 358 358 356 355 354 354 354 354 354 354 354 354 355 355 355 355 356 356 357 356 356 356 355 352 348 346 344 340 333 324 317 319 325 331 332
358 358 358 359 361 361 360 359 358 357 355 354 353 353 353 353 354 355 356 357 357 357 357 357 358 358 358 357 357 356 354 352 349 346 342 337 328 320 321 329 334 335
359 359 359 360 361 361 360 360 359 357 356 354 354 353 353 353 355 357 358 358 359 359 359 359 359 359 359 358 357 356 354 352 350 346 342 339 334 326 323 325 329 333
359 360 360 360 360 361 360 360 359 358 357 356 356 355 355 356 357 358 359 359 359 359 360 360 360 360 359 357 356 355 353 350 348 345 343 341 337 331 327 325 326 332

ECMWFNIL_850_thetae_051.txt.gz
Theta_e
346 347 346 345 342 339 337 337 337 338 340 341 342 342 342 341 342 344 343 342 343 343 340 340 340 339 335 328 319 316 318 319 319 318 319 322 325 327 328 328 329 330
346 346 346 346 344 341 338 338 339 340 340 340 341 341 341 341 341 342 341 342 343 342 341 340 339 338 334 326 318 316 318 319 320 319 319 320 322 324 326 328 329 329
347 346 347 345 344 342 339 338 340 341 341 340 340 341 341 341 341 341 341 341 341 341 341 341 340 339 334 326 319 317 317 318 319 320 320 321 321 323 325 328 328 328
348 347 347 345 343 341 339 339 339 341 342 342 341 341 341 342 341 342 341 341 341 341 341 342 340 339 336 330 322 317 317 318 319 321 322 323 322 322 324 327 328 328
347 347 347 346 343 341 340 339 337 338 340 341 341 341 341 341 341 343 342 342 341 341 342 343 341 340 338 334 327 320 317 317 318 320 322 324 323 321 322 325 327 328
348 348 348 348 345 343 340 337 336 336 337 339 340 341 341 341 342 343 343 342 341 341 342 343 342 340 339 337 332 325 319 316 317 318 320 322 323 321 321 322 325 327
348 348 348 348 347 345 341 337 335 335 336 337 338 339 340 341 342 343 343 343 341 341 342 343 342 340 339 339 337 330 323 318 316 317 318 320 322 321 321 321 322 324
348 348 349 349 348 347 344 339 336 335 336 336 337 338 339 340 341 343 344 343 342 342 343 343 342 341 340 339 339 335 327 319 316 317 317 318 320 320 321 322 322 322
348 349 349 350 349 348 346 342 338 336 336 336 337 337 338 339 340 342 343 343 343 342 343 343 343 342 340 340 339 338 332 323 317 316 316 318 319 319 320 321 321 321
349 350 350 350 350 349 347 344 340 338 337 337 337 337 338 339 340 341 343 343 343 342 343 343 343 342 341 341 340 339 337 331 324 318 316 317 318 318 319 319 319 320
350 350 351 351 351 350 348 345 343 341 339 338 338 338 338 339 339 341 342 343 343 342 343 343 343 342 341 341 340 340 339 338 332 326 319 316 317 318 318 319 319 319
351 351 351 352 351 350 349 347 345 344 342 340 340 339 339 339 339 340 342 343 342 342 343 343 343 342 341 341 341 340 341 340 339 334 325 318 316 317 318 319 319 319
351 351 352 352 352 351 349 348 347 345 344 342 340 340 340 339 339 340 341 342 342 342 342 343 343 342 342 342 342 341 342 341 341 339 333 323 317 316 318 318 318 319
351 351 352 352 352 352 350 349 348 346 344 342 341 340 340 339 338 339 340 342 342 342 342 343 343 343 342 342 343 343 343 343 342 342 340 332 322 316 316 318 318 319
352 352 352 352 353 352 351 351 349 347 345 343 341 339 338 338 339 339 340 341 341 341 341 343 343 342 342 342 342 343 344 344 343 343 343 340 330 320 316 317 319 319
353 353 353 353 353 353 352 352 350 349 347 343 340 337 336 337 338 340 341 341 340 340 340 341 341 341 341 342 342 344 345 345 345 345 345 344 339 328 319 316 318 320
353 353 353 353 353 353 353 353 352 350 347 344 340 336 334 335 337 339 341 340 340 340 340 340 339 339 341 341 342 345 346 346 346 347 346 345 344 337 325 317 318 321
353 354 354 353 354 354 354 353 353 351 349 346 342 336 333 335 336 338 339 339 340 341 340 340 339 339 340 340 343 346 347 347 348 348 347 347 346 344 335 321 317 320
354 354 354 353 354 354 354 354 354 352 350 347 343 338 335 335 336 337 339 339 340 341 341 340 340 340 340 341 344 348 348 348 348 348 348 348 348 348 342 330 319 319
355 355 354 354 354 355 356 355 354 353 350 348 346 343 339 336 335 337 338 339 340 340 340 341 341 341 341 342 346 350 350 348 348 349 349 349 349 348 346 340 328 320
355 355 354 355 356 356 357 356 355 354 352 350 348 345 341 337 336 337 337 338 339 340 341 343 342 343 343 344 347 351 351 350 349 350 350 349 349 348 347 345 336 322
356 355 355 356 357 357 357 356 355 355 353 352 350 347 345 343 341 339 338 338 339 341 344 345 344 344 345 346 350 353 353 352 351 350 349 348 349 348 346 346 339 324
356 356 356 357 357 357 357 356 356 355 354 354 353 351 349 346 343 341 340 340 341 343 345 346 345 345 345 347 352 354 353 353 352 350 348 347 347 346 344 344 339 326
354 356 356 357 357 357 357 357 357 356 355 355 354 353 351 347 345 344 342 342 343 344 346 346 345 345 346 349 353 354 354 354 352 350 348 346 345 343 342 342 339 330
354 355 356 356 356 356 356 357 357 356 356 356 356 355 353 350 349 348 346 345 346 345 346 347 347 347 348 351 354 355 355 354 353 351 349 348 347 344 343 343 340 334
354 354 355 355 355 355 355 357 357 357 357 357 356 356 355 354 353 352 350 349 348 348 348 349 349 349 350 353 355 356 355 354 353 351 350 350 349 346 345 345 342 337

ECMWFNIL_850_thetae_054.txt.gz
Theta_e
344 343 341 340 339 340 340 340 340 339 337 336 337 336 337 339 341 342 343 344 345 344 343 343 342 341 341 341 340 338 330 321 317 318 320 323 324 325 327 329 330 331
346 346 344 342 341 341 340 339 340 340 339 336 336 335 335 337 340 342 343 344 345 343 342 342 342 342 341 340 340 338 332 323 318 318 319 321 322 323 323 325 328 329
347 346 346 345 344 342 340 339 339 339 339 337 336 336 335 336 338 342 343 344 344 343 342 341 341 343 342 341 340 339 334 326 320 318 319 321 322 321 320 321 325 327
347 347 346 346 345 344 342 341 339 338 338 338 337 336 336 336 338 340 342 343 344 343 341 340 341 342 342 341 340 339 336 330 324 319 318 320 322 321 320 320 323 326
346 346 346 346 345 344 344 343 341 339 338 337 336 336 337 338 338 339 341 342 343 343 341 341 341 341 342 341 340 340 338 335 329 322 318 319 321 322 322 321 322 325
346 346 346 346 346 345 345 344 342 340 339 337 335 335 337 339 340 339 339 340 341 342 342 341 341 340 340 341 341 340 340 339 335 326 319 317 319 321 322 322 322 324
346 346 346 346 346 345 345 344 343 342 341 339 337 335 335 337 339 340 339 340 340 341 342 342 342 341 340 341 341 341 340 340 339 333 323 317 318 320 321 322 322 322
345 346 346 346 346 346 345 345 344 344 343 342 340 336 334 334 336 338 339 340 340 340 341 342 342 342 341 341 340 341 341 341 340 338 330 321 317 318 320 321 321 321
345 346 346 346 346 346 346 346 346 346 345 345 342 338 335 333 334 336 337 339 340 340 340 341 343 343 342 342 341 341 341 342 341 340 337 330 321 317 318 319 320 320
346 346 346 346 346 346 346 346 346 347 346 346 345 341 337 333 333 334 335 337 338 339 339 340 342 343 342 342 342 341 341 342 342 341 340 338 330 322 318 317 319 320
346 346 346 346 347 347 347 346 346 347 347 347 347 344 339 335 333 334 335 336 337 337 338 339 340 341 342 342 342 341 341 342 342 341 340 340 337 331 324 319 317 318
346 347 347 347 347 347 347 347 347 347 348 348 348 346 343 338 335 334 334 335 336 336 337 338 339 340 341 342 342 342 342 342 342 342 341 340 340 338 334 327 321 317
346 346 347 347 347 347 347 347 347 347 348 348 349 348 346 341 337 335 334 335 336 336 337 337 338 339 340 341 342 343 343 343 342 341 341 341 341 341 340 336 330 323
346 346 347 347 347 347 347 347 347 348 348 349 349 349 347 344 339 336 335 335 335 336 336 337 337 338 339 340 341 343 343 343 342 341 341 341 342 341 341 341 339 333
346 347 347 347 347 347 347 347 347 348 348 349 350 350 348 345 343 339 337 335 336 336 336 336 336 337 338 339 340 341 342 342 342 342 342 342 342 342 342 342 343 341
347 347 347 347 348 347 347 348 348 348 349 350 350 350 349 347 345 343 339 337 336 336 336 336 335 335 336 338 339 339 340 341 342 342 343 343 343 343 343 343 343 344
347 348 348 348 347 348 347 348 348 348 349 350 350 350 349 348 347 344 341 338 336 336 336 335 335 334 335 337 338 339 339 340 341 343 343 344 343 343 344 344 344 345
348 348 348 348 347 348 348 348 349 349 350 350 351 351 350 349 348 345 342 339 337 335 335 334 334 334 335 336 337 338 339 339 340 342 343 344 343 343 344 345 346 346
348 349 349 348 348 349 349 349 350 350 350 350 350 351 351 350 348 345 342 339 337 335 333 333 333 334 335 336 337 338 339 340 340 341 343 343 342 343 344 344 346 347
348 349 349 349 349 350 350 350 350 350 350 351 351 351 352 351 349 346 342 338 336 335 333 333 333 334 335 336 337 339 340 340 341 342 343 343 343 344 345 345 347 348
349 349 349 350 350 351 351 351 351 351 351 351 352 352 352 352 351 348 344 339 336 335 334 333 334 335 335 336 337 339 340 341 343 344 344 344 344 345 347 348 349 349
349 349 349 351 351 351 352 351 351 352 352 352 352 352 353 352 352 351 348 343 340 338 335 334 334 336 336 337 338 339 342 344 345 346 346 345 346 347 348 349 350 349
349 350 350 351 352 352 352 351 351 352 352 353 352 352 353 353 353 352 352 349 346 343 339 337 337 337 337 338 340 341 344 346 346 346 347 347 348 347 346 347 348 348
349 350 351 351 352 352 351 351 352 352 353 353 353 353 353 353 353 353 352 351 349 345 342 342 343 341 339 340 343 344 346 347 346 347 348 348 348 348 347 348 348 348
349 351 351 352 352 351 351 351 351 352 353 353 353 353 353 353 354 354 353 352 350 347 345 348 349 347 344 344 346 346 347 348 348 348 349 349 350 350 350 350 349 348
350 351 351 352 351 350 351 351 352 353 353 354 354 353 353 354 354 354 354 352 351 350 349 351 352 350 349 349 348 348 348 349 349 350 350 351 351 352 352 351 348 347

ECMWFNIL_850_thetae_057.txt.gz
Theta_e
345 342 340 338 338 338 338 338 338 338 338 337 337 336 337 337 338 339 339 340 341 341 341 342 344 345 345 345 344 343 341 341 339 330 320 318 320 323 325 326 328 330
346 344 341 339 339 338 338 338 337 337 337 337 336 336 336 336 337 337 338 339 340 341 341 342 343 344 344 344 344 343 341 340 338 330 321 318 319 321 323 325 327 329
346 345 344 343 342 341 339 338 337 336 337 337 336 336 335 336 336 336 336 337 338 340 342 342 343 344 344 343 344 344 342 340 339 333 325 319 318 320 321 323 326 326
345 345 345 345 344 343 342 340 339 337 337 337 336 336 335 335 336 335 335 335 336 338 341 343 343 343 343 343 343 343 342 341 340 337 331 323 318 318 320 322 325 325
345 345 345 345 345 344 344 343 341 340 337 336 336 335 335 335 335 336 335 335 335 336 339 342 343 343 343 342 342 343 342 341 341 339 336 328 320 318 319 321 324 325
345 345 345 346 346 345 345 344 344 343 340 338 336 335 335 335 335 336 336 336 336 336 338 340 342 342 342 342 342 342 342 341 341 340 339 335 327 321 318 320 323 325
344 345 345 345 346 346 346 345 344 344 343 340 338 336 335 334 334 335 336 337 337 337 338 339 340 341 342 342 341 341 341 341 341 341 341 339 336 329 321 319 321 324
344 344 345 345 346 346 346 346 345 345 344 343 342 339 336 335 334 334 335 336 337 338 338 338 339 340 341 342 342 341 341 341 340 340 340 341 340 336 329 321 318 321
344 344 344 345 345 346 346 346 346 345 344 344 344 341 339 336 335 334 334 334 335 337 338 338 338 339 340 341 342 342 342 341 340 340 340 340 340 340 337 330 322 318
344 344 344 345 345 345 346 346 345 345 345 344 344 344 342 339 337 336 335 334 334 335 336 337 338 338 338 339 340 341 342 342 341 340 340 340 340 340 340 338 331 323
343 344 344 345 345 345 345 345 345 345 345 345 344 345 344 342 340 339 337 336 334 333 334 336 337 337 338 338 339 340 342 343 343 341 340 340 340 340 340 340 338 332
342 343 344 344 344 345 344 344 345 345 345 345 345 345 345 344 343 342 340 337 335 333 333 334 335 336 337 338 338 339 341 342 343 343 342 341 340 339 339 340 340 338
342 342 343 344 344 344 344 344 344 344 344 345 345 345 345 345 345 344 342 340 337 334 333 333 334 335 336 337 337 338 339 341 343 343 343 342 341 339 339 339 340 340
342 342 342 343 344 344 344 344 344 344 345 345 345 345 346 345 346 346 345 343 340 336 334 333 333 334 335 335 337 337 338 339 341 343 344 343 342 340 339 339 340 340
343 343 343 344 344 344 344 344 345 345 345 345 345 345 346 346 346 346 346 346 345 341 337 335 334 333 334 335 336 336 337 338 339 341 343 344 343 341 340 339 339 340
343 344 344 344 345 344 344 345 345 345 345 345 345 345 346 346 346 347 347 347 347 346 342 339 336 334 334 334 335 336 336 337 338 339 341 343 343 342 341 339 339 340
344 344 344 344 344 344 345 345 345 345 345 345 346 346 346 346 346 347 347 347 348 348 346 343 338 335 334 334 334 335 336 336 337 338 339 342 343 342 341 339 338 339
344 344 344 344 345 345 345 345 345 346 346 346 346 346 346 346 346 347 347 348 348 349 348 346 341 338 337 336 335 335 336 336 336 337 338 340 342 342 341 340 338 339
344 344 344 344 345 345 345 345 345 345 346 346 346 346 347 347 347 347 347 348 348 349 349 348 344 341 339 338 337 336 336 337 336 336 337 339 340 341 341 340 339 339
344 344 344 345 345 345 346 346 345 346 346 346 346 347 347 347 347 347 348 348 348 349 350 349 346 343 341 340 339 337 337 338 338 337 336 338 339 340 341 340 339 338
344 344 344 345 345 345 346 346 346 346 346 346 347 347 347 347 347 347 348 348 349 349 350 350 349 345 342 340 339 338 337 338 339 338 337 337 338 339 341 341 339 340
344 344 344 345 346 347 347 347 347 346 346 347 347 347 347 347 347 348 348 348 349 349 350 350 351 347 343 341 340 339 339 339 340 339 338 337 338 339 341 341 341 342
344 345 345 345 346 347 347 347 347 346 347 347 347 348 347 348 348 348 348 349 349 350 350 350 351 350 346 343 341 340 340 340 340 340 338 338 339 339 342 343 342 343
344 344 345 346 346 346 346 347 347 347 348 348 348 348 347 348 348 348 348 349 349 349 350 350 351 351 347 344 341 341 341 340 338 339 338 338 339 340 342 344 344 344
344 345 346 346 346 346 346 347 347 347 348 348 348 348 349 349 349 349 349 349 349 350 350 350 352 352 350 347 345 342 342 340 339 340 340 339 339 340 343 344 345 345
345 345 346 346 346 347 346 347 348 348 348 349 349 349 350 350 351 351 350 349 351 353 352 351 352 353 352 351 349 345 343 342 341 341 341 339 339 341 343 344 345 346

ECMWFNIL_850_thetae_060.txt.gz
Theta_e
339 339 339 339 339 339 339 338 338 338 337 337 336 337 337 337 337 337 337 338 339 338 338 340 340 341 345 348 349 348 349 350 350 349 347 336 322 321 326 329 331 334
340 339 340 339 339 339 339 338 338 338 338 338 337 336 337 337 337 337 337 337 338 338 338 340 341 341 342 346 349 349 348 348 348 348 347 338 323 319 323 325 327 327
342 342 341 341 340 339 338 338 338 338 338 338 338 337 337 337 336 336 337 337 338 338 338 340 344 344 341 343 347 348 348 346 345 347 347 340 327 320 319 322 325 324
345 345 344 344 343 342 341 340 339 338 338 338 338 338 338 337 337 336 336 337 337 337 338 339 342 344 341 342 345 346 347 346 344 347 347 342 332 324 319 320 323 324
346 346 346 346 346 345 344 342 339 338 338 337 337 338 338 337 337 336 336 336 336 336 337 336 338 340 341 342 344 344 346 346 344 346 347 342 335 327 321 318 319 321
346 346 346 346 346 346 346 344 340 339 339 338 338 337 337 337 336 336 336 336 336 335 336 335 336 337 339 342 343 343 344 345 345 346 345 343 339 332 325 320 318 319
345 345 345 346 346 346 346 345 343 342 342 341 340 338 337 336 336 336 336 335 335 336 335 335 335 336 337 340 341 343 343 343 345 345 344 344 342 337 332 327 320 318
343 344 344 345 345 346 346 345 344 344 343 343 342 340 337 336 336 336 336 336 336 336 336 336 336 335 337 338 340 342 343 342 343 343 342 344 343 340 338 336 329 321
341 342 343 343 344 345 344 344 345 344 344 344 344 343 340 337 336 336 335 336 336 336 336 336 336 337 336 337 338 340 342 342 342 341 341 342 342 340 339 340 337 330
339 340 341 342 343 343 344 344 344 344 344 344 344 344 344 341 338 337 336 336 336 336 336 336 336 337 337 337 338 339 340 341 341 341 341 341 341 340 340 341 341 338
340 339 339 340 341 342 343 343 344 344 344 344 344 345 345 344 341 340 339 337 336 335 335 335 335 336 337 337 338 338 339 340 341 341 341 341 341 341 341 342 341 341
341 341 340 340 341 341 341 342 343 344 344 344 344 344 345 345 344 342 342 340 337 335 335 334 335 335 335 336 337 338 339 339 339 340 340 342 342 341 341 342 342 341
341 341 341 341 341 341 341 342 342 343 343 343 343 343 344 345 345 344 343 342 340 337 335 335 335 335 335 335 335 337 338 339 340 339 340 340 342 342 341 341 342 342
341 341 341 341 341 341 341 342 342 343 343 343 343 344 344 344 345 344 344 344 342 340 337 336 336 336 336 335 335 335 336 337 339 340 340 340 340 341 342 341 342 342
342 341 341 341 342 342 341 342 342 342 343 343 343 344 343 344 344 345 345 344 344 342 340 339 338 338 336 335 335 334 334 334 336 338 339 340 340 340 341 342 342 342
342 342 342 342 342 342 342 342 342 342 342 343 343 343 343 344 343 344 345 345 345 345 344 343 342 339 336 335 334 334 334 333 334 335 337 338 339 339 340 342 342 342
343 342 343 343 342 342 342 342 342 342 342 343 344 344 343 344 344 344 345 345 345 345 345 345 344 342 339 337 336 335 335 334 333 333 334 335 337 337 338 339 341 342
342 343 343 342 342 342 342 342 343 342 343 343 344 344 343 344 344 344 344 345 345 345 345 345 345 345 344 342 340 338 337 337 336 334 334 334 335 336 336 337 340 340
343 343 343 343 343 343 343 343 343 343 344 344 344 343 344 344 344 345 345 345 345 346 346 346 346 346 346 346 345 343 342 341 340 338 335 334 334 335 336 336 338 339
343 343 342 343 343 343 344 344 343 343 344 344 345 345 344 344 344 345 345 345 345 346 346 346 346 346 346 347 347 347 346 346 345 343 339 335 334 334 335 336 336 338
342 342 342 343 343 343 344 344 344 344 344 344 346 346 345 345 345 345 345 345 345 346 346 346 346 346 347 347 347 348 348 348 348 347 344 339 336 335 335 335 335 336
342 342 342 343 343 343 344 344 343 344 344 344 345 346 346 346 345 345 345 346 345 346 346 346 346 346 346 347 347 347 348 349 349 349 348 344 339 338 337 336 336 337
342 342 342 343 343 344 344 344 344 344 344 345 345 346 347 346 346 347 346 346 346 346 346 346 346 347 346 347 347 347 348 349 348 349 349 346 343 342 340 338 338 339
342 342 343 343 343 344 343 343 344 344 344 345 345 346 346 346 348 349 348 348 347 347 348 348 349 349 347 346 348 348 348 349 348 349 348 346 344 344 342 341 340 341
342 342 343 343 343 344 344 345 345 345 346 347 346 346 347 348 350 352 352 351 351 352 352 351 351 353 351 347 347 348 348 349 349 350 349 348 346 345 345 346 345 343
343 342 343 343 343 344 344 345 345 346 346 347 347 349 350 351 352 353 354 354 353 354 354 350 352 356 355 349 350 351 349 349 351 352 351 351 350 349 349 350 348 347

ECMWFNIL_850_thetae_066.txt.gz
Theta_e
343 342 339 339 339 340 345 344 337 335 337 340 342 341 340 341 343 347 348 346 341 340 341 344 345 346 347 345 347 349 348 347 347 346 343 340 330 319 320 322 326 338
341 340 338 338 339 338 342 345 340 335 337 338 341 340 337 338 341 346 350 349 344 341 340 340 341 344 346 345 346 346 345 346 346 346 344 342 337 325 318 320 321 329
340 339 337 337 336 335 339 345 344 339 338 338 341 345 343 340 341 345 349 350 347 345 344 341 339 340 343 343 345 345 344 344 344 346 346 344 341 335 323 319 319 322
339 338 336 334 333 333 337 342 343 341 340 339 339 345 349 348 348 348 349 350 349 348 347 345 341 339 340 342 343 343 342 342 342 345 347 346 344 342 334 325 319 321
337 336 335 334 334 335 336 337 339 340 342 343 341 342 347 350 352 352 351 351 350 350 347 346 344 342 342 343 344 342 341 340 340 343 346 348 346 344 343 335 324 322
336 335 336 335 335 337 337 334 336 340 343 345 345 344 346 347 350 353 354 351 351 351 349 347 345 344 343 344 344 344 343 340 339 340 344 347 347 345 345 342 335 326
336 335 335 336 336 337 337 336 336 340 343 346 347 348 349 348 347 349 352 353 352 351 350 348 346 343 341 341 343 344 344 343 342 341 341 344 347 347 345 344 342 335
336 336 335 336 337 337 337 337 337 339 341 346 349 349 350 349 347 346 347 351 352 350 349 349 349 346 342 341 341 341 343 344 344 343 342 342 345 347 347 345 344 341
337 336 336 336 337 337 337 337 338 340 341 344 348 350 350 349 350 348 346 347 350 350 348 347 350 350 347 346 342 340 341 344 345 344 343 342 343 344 346 346 344 343
339 338 337 337 337 336 337 336 337 338 340 341 343 348 352 351 350 351 350 348 347 349 349 346 348 351 350 349 347 341 339 340 341 344 343 342 341 341 343 344 343 342
340 340 338 337 337 335 336 336 336 337 339 340 340 344 350 351 350 350 352 350 347 347 348 345 345 347 349 350 350 347 341 337 337 341 343 342 340 340 341 342 342 341
339 341 340 337 336 337 337 335 337 339 342 341 339 340 343 348 350 349 350 351 346 343 344 345 343 344 345 346 348 349 346 341 337 339 343 343 341 339 339 340 341 341
339 339 340 339 337 338 340 339 339 342 345 345 343 342 341 345 349 350 348 348 347 343 341 343 343 341 342 343 345 347 349 346 340 337 341 345 344 342 340 338 340 341
339 339 340 340 340 339 340 343 344 345 348 349 350 351 349 347 351 351 348 347 347 345 343 342 344 342 340 341 343 345 349 350 345 338 339 344 347 347 345 340 340 341
339 339 340 340 342 341 339 342 346 349 350 350 353 355 356 355 354 354 352 350 348 348 347 347 346 344 341 340 341 342 345 349 348 342 338 341 346 350 351 347 343 342
341 338 338 339 341 342 340 341 345 349 351 351 352 354 356 358 358 356 356 354 352 351 351 351 350 346 342 339 338 338 338 342 346 345 343 340 341 346 351 351 349 347
343 339 337 337 338 340 341 341 344 348 350 352 352 353 354 357 359 358 357 356 356 355 353 351 349 347 343 339 336 335 334 336 339 342 343 342 340 342 345 349 351 350
348 342 339 339 337 338 338 340 342 345 347 350 352 352 353 355 357 358 357 355 357 358 356 352 347 345 343 340 337 335 334 335 336 337 340 342 341 340 340 343 346 348
353 347 343 341 339 337 336 337 339 342 344 346 349 352 352 354 355 357 358 356 355 358 359 357 352 346 344 342 341 339 338 337 336 336 337 338 338 339 339 339 340 342
357 354 349 345 342 340 339 339 338 339 340 343 347 350 352 353 353 354 356 356 355 355 357 360 359 355 351 347 344 342 342 341 340 339 338 338 339 339 338 337 338 339
360 357 355 352 349 346 343 341 340 341 341 343 346 348 348 350 351 351 353 354 354 354 354 356 359 360 358 354 349 344 344 343 343 342 341 341 341 342 341 340 340 341
362 360 360 359 357 355 351 347 344 344 344 346 348 351 350 349 350 350 350 351 352 353 353 352 354 357 359 358 355 351 349 347 346 345 345 345 344 345 345 346 346 346
362 362 364 363 361 359 356 353 349 348 348 351 353 353 355 355 353 351 351 351 351 352 352 351 351 353 356 357 356 356 356 354 351 350 349 347 346 346 348 349 351 351
362 364 365 365 362 361 359 356 355 354 355 355 354 355 357 359 359 357 354 354 354 353 353 353 352 352 354 355 357 359 359 359 357 356 354 351 348 348 349 352 352 353
362 364 365 364 362 363 360 358 357 356 357 358 358 356 356 359 362 362 360 359 358 356 357 357 357 357 356 356 356 358 359 360 360 360 359 356 354 353 353 352 353 354
363 364 365 364 363 363 362 360 360 360 360 361 361 360 359 358 360 362 363 364 363 363 361 361 360 360 359 358 358 359 360 360 361 361 360 359 358 358 356 355 354 354

ECMWFNIL_850_thetae_069.txt.gz
Theta_e
341 337 335 335 335 333 332 331 334 336 337 340 340 339 338 337 340 342 341 341 341 340 340 341 343 345 345 345 344 344 342 341 342 341 341 344 338 327 325 328 327 324
341 338 337 336 334 333 332 331 333 335 336 338 339 338 337 336 337 339 340 342 343 341 340 339 342 345 346 346 346 345 343 341 341 341 340 342 343 337 328 322 323 324
341 339 337 336 335 333 333 333 332 334 335 338 338 337 337 336 335 335 337 340 342 341 341 340 340 343 345 345 346 346 344 343 341 341 340 340 341 342 337 327 321 322
340 338 336 335 334 334 334 334 333 333 334 336 337 336 336 335 335 335 336 338 341 341 341 340 339 341 342 344 345 346 345 343 343 343 341 340 339 341 341 336 328 322
337 337 335 335 335 335 334 334 332 331 332 333 334 334 335 336 336 336 336 337 339 340 339 339 339 339 340 340 342 344 344 343 343 344 341 340 339 338 340 341 338 331
338 337 336 336 335 335 335 334 334 333 332 332 333 335 335 336 338 338 339 338 338 338 339 338 337 338 340 339 339 340 341 341 342 342 341 338 338 338 339 340 341 340
338 338 337 337 336 335 335 334 334 335 334 333 333 334 335 336 338 339 341 341 341 339 339 339 337 336 337 339 339 339 340 341 341 341 340 339 337 338 338 338 340 341
338 337 338 337 336 335 334 333 334 334 334 333 334 333 334 335 337 339 340 343 344 343 342 341 339 338 336 337 339 340 341 342 342 342 341 340 339 338 338 338 339 339
339 338 337 337 336 335 334 333 333 333 334 334 333 333 333 335 336 338 339 340 344 346 345 343 342 340 339 339 338 339 340 340 341 342 342 341 340 339 339 339 339 340
345 342 340 339 338 335 335 334 333 334 334 334 334 334 335 335 336 338 341 341 342 344 346 346 343 341 341 341 339 339 340 339 339 340 340 340 340 340 339 340 340 340
348 347 345 343 340 337 336 334 334 334 335 335 335 336 336 335 336 338 341 343 342 341 342 343 343 341 341 340 340 339 339 339 339 339 339 339 340 340 340 340 340 340
348 347 347 345 343 340 338 336 336 336 336 335 336 336 336 336 337 338 339 340 341 341 340 339 340 341 341 340 339 339 339 339 339 339 339 339 338 339 339 340 340 340
347 346 345 344 343 342 340 339 338 337 337 337 336 337 337 338 338 339 339 338 339 340 340 340 338 340 341 341 341 340 339 338 338 339 339 339 338 337 336 337 339 340
347 344 343 343 343 342 341 341 339 339 339 337 337 338 338 339 339 339 338 338 338 340 340 340 340 340 341 342 342 343 342 340 338 337 338 338 338 337 336 335 337 339
349 346 344 344 344 344 343 341 340 340 340 339 338 338 338 339 340 339 339 340 341 341 341 341 343 341 340 340 340 341 342 341 339 337 337 337 338 338 337 336 336 337
353 349 348 346 345 345 343 342 341 341 342 343 341 339 337 339 340 342 341 340 341 343 342 342 344 341 339 338 338 337 338 340 340 338 336 336 337 338 338 337 336 336
357 352 351 349 347 345 343 342 341 342 343 344 343 341 340 340 341 343 344 343 342 343 343 344 343 342 340 338 337 336 337 339 340 339 338 337 337 337 337 336 337 336
360 356 353 350 348 346 343 341 341 343 343 344 344 344 343 343 343 344 346 347 346 344 345 345 344 342 341 340 338 336 337 337 339 340 340 339 338 337 336 336 337 337
362 360 356 352 349 346 343 342 342 343 343 344 343 344 345 345 345 345 347 349 351 350 349 346 345 343 343 343 340 339 339 338 339 339 341 340 338 337 337 337 338 338
362 362 359 356 351 347 345 344 343 341 342 342 343 345 347 348 347 348 348 350 352 353 352 350 346 344 344 344 343 342 341 341 341 341 342 342 342 340 340 339 339 339
363 362 361 358 356 351 349 346 343 341 341 342 343 345 345 347 347 348 349 349 352 354 354 354 350 346 344 344 344 344 345 346 347 347 347 347 346 346 345 343 342 342
363 361 360 359 357 354 352 348 345 342 340 341 343 344 345 346 347 349 348 349 350 351 354 354 352 350 349 347 346 346 348 350 353 353 353 352 352 352 350 349 348 346
363 361 360 360 358 356 354 350 347 343 342 342 343 344 345 345 345 346 347 347 348 348 350 350 350 350 351 352 352 353 353 355 357 356 356 355 355 355 355 354 353 351
363 361 361 360 358 357 355 352 349 347 344 344 345 344 343 343 343 345 346 347 347 346 346 346 347 348 351 354 355 357 359 360 360 360 359 357 357 358 357 356 356 355
363 362 361 360 359 358 357 355 353 350 349 347 346 346 346 345 346 348 348 347 347 347 347 349 351 351 354 356 357 359 360 361 362 362 362 361 361 360 360 359 359 359
363 363 362 361 361 359 359 358 357 355 354 352 351 349 349 349 350 351 351 351 350 351 352 353 354 355 356 358 359 360 360 361 361 362 362 362 362 362 362 361 361 361

ECMWFNIL_850_thetae_072.txt.gz
Theta_e
348 348 346 344 342 339 338 337 337 337 336 335 333 332 331 331 335 340 340 338 338 339 340 341 341 342 343 343 344 343 344 343 343 342 342 343 338 329 324 327 330 330
347 347 347 346 344 342 340 337 336 336 334 332 331 330 330 332 336 339 340 340 338 338 339 340 341 342 342 343 343 343 343 342 342 342 342 342 342 338 331 326 325 326
348 348 348 346 344 342 340 339 337 334 333 331 330 331 333 334 336 338 340 341 339 337 339 340 340 341 342 342 342 342 343 342 341 341 341 341 342 342 341 335 329 324
348 348 347 345 344 342 340 339 337 334 333 332 330 331 333 335 336 338 338 340 340 340 341 340 339 339 340 342 343 342 343 342 342 341 341 341 340 341 342 342 338 331
348 346 345 344 343 342 341 339 336 334 333 331 331 332 334 335 336 337 337 337 338 339 340 341 340 339 339 340 342 342 342 342 342 342 341 341 340 340 340 341 341 339
349 347 346 345 344 343 341 338 335 334 332 330 332 333 334 335 336 337 337 336 335 335 337 340 341 341 339 339 341 341 341 341 340 341 341 341 341 341 340 340 340 340
348 347 346 345 345 345 343 339 335 334 332 331 332 333 334 335 335 336 335 334 334 333 335 338 340 340 339 338 339 340 340 340 340 340 340 340 341 341 340 339 338 337
346 346 346 345 345 345 343 340 336 334 332 331 331 332 333 334 334 334 333 334 334 334 334 335 337 338 338 337 338 338 339 339 339 339 338 338 339 339 339 338 338 336
346 345 344 344 345 344 343 340 337 335 334 332 330 330 332 332 332 331 331 333 334 335 335 335 335 335 336 337 336 336 338 338 338 338 338 338 338 337 337 338 337 337
348 347 345 345 345 343 342 340 338 337 335 333 331 330 331 331 331 332 332 333 333 335 335 335 335 334 334 335 335 335 336 336 336 337 338 338 338 337 337 337 337 337
350 349 347 345 344 343 342 341 340 339 337 335 333 331 331 330 331 332 333 334 333 333 334 335 335 334 334 334 335 335 335 334 335 336 337 337 338 337 337 337 337 337
351 349 346 345 344 342 342 341 341 340 338 337 335 334 332 331 331 331 332 332 333 332 333 333 333 334 334 334 334 334 335 336 336 336 336 337 337 337 337 337 337 336
351 349 345 343 342 341 341 341 340 339 338 337 335 335 334 332 332 331 331 331 332 332 332 332 333 334 334 334 334 335 336 336 336 336 337 337 337 337 337 337 337 336
352 350 348 344 342 341 341 340 340 340 339 337 336 335 335 334 332 332 331 331 332 332 332 333 334 335 335 336 336 336 337 337 336 336 336 336 336 336 336 336 336 336
354 353 350 347 345 343 342 341 341 340 339 338 337 336 335 335 334 333 333 333 333 333 333 335 337 337 336 336 336 336 336 337 336 336 336 336 335 334 335 336 335 335
356 354 352 351 348 346 344 343 342 342 341 340 338 336 335 335 335 336 336 335 334 334 335 337 337 337 335 335 336 336 336 336 336 337 337 337 337 336 336 336 335 334
357 356 355 353 351 348 346 344 343 344 344 342 339 338 337 337 337 337 337 337 336 335 335 337 337 336 334 335 336 335 337 338 337 337 338 339 340 340 338 337 336 336
359 358 356 355 354 351 349 346 346 346 346 344 343 341 339 338 338 338 338 338 337 337 337 337 336 335 335 335 335 336 338 340 341 340 340 341 341 341 340 339 338 338
360 360 359 358 356 355 353 351 349 348 347 346 344 343 343 341 340 339 339 339 339 338 337 337 336 335 335 336 336 337 339 342 344 344 344 343 343 344 342 341 341 340
362 362 361 360 360 358 356 354 352 350 348 347 348 347 346 344 341 341 341 341 340 339 337 337 337 336 336 337 337 337 339 342 345 346 347 347 346 346 345 345 343 343
363 363 363 363 362 361 359 357 354 352 350 349 349 349 347 344 343 342 342 341 341 340 339 339 337 337 338 339 339 339 341 343 346 348 349 349 348 348 347 347 346 345
364 364 364 364 364 363 362 359 357 355 351 350 350 349 348 346 345 344 342 343 342 342 342 340 337 337 339 339 340 343 345 347 348 350 351 351 351 351 349 349 348 348
364 365 365 365 364 364 363 362 360 358 355 353 351 350 349 347 345 344 343 344 344 344 344 341 337 337 340 341 342 346 348 351 352 352 353 353 353 353 352 352 352 352
364 365 365 365 365 365 364 363 362 360 358 356 353 351 349 347 346 346 345 346 346 345 345 344 341 341 343 344 346 348 350 353 353 354 354 355 354 354 354 354 355 355
365 365 364 365 364 364 364 363 362 362 360 358 355 353 350 348 349 350 350 347 347 347 347 348 348 348 349 350 351 353 354 355 356 356 356 356 356 356 356 357 357 358
365 365 365 364 364 364 364 363 363 362 362 359 358 355 352 351 351 351 352 351 350 351 351 352 353 353 354 355 355 356 357 357 358 358 357 357 358 357 357 357 358 359

ECMWFNIL_850_thetae_075.txt.gz
Theta_e
350 350 349 347 345 342 342 343 342 341 339 338 337 335 336 335 335 337 337 337 336 336 338 339 339 339 340 342 343 344 344 343 343 345 346 345 345 344 338 328 327 331
350 350 350 349 347 344 343 342 343 342 340 339 337 336 336 335 335 336 336 336 337 337 337 338 339 339 340 341 342 342 343 343 343 343 344 345 344 343 341 332 326 327
350 351 350 349 348 345 343 343 343 343 341 340 338 337 336 336 335 335 335 335 337 337 337 338 338 339 339 340 341 342 342 341 342 342 342 343 343 342 342 340 334 329
350 350 350 349 347 345 343 344 344 344 342 340 339 337 337 336 334 334 334 334 337 338 338 337 338 339 339 340 340 341 341 341 341 342 341 341 342 342 342 342 341 337
351 350 351 350 348 347 345 343 343 343 342 340 340 339 338 336 334 332 331 333 335 338 338 338 337 338 338 338 339 340 340 340 340 341 342 341 341 341 342 342 341 341
351 351 351 350 349 348 345 342 340 340 341 340 340 340 340 338 335 332 331 332 335 336 337 337 337 338 338 338 338 338 338 339 340 340 341 341 341 340 341 341 340 340
351 351 351 350 350 349 347 344 341 340 340 340 340 340 339 339 335 332 331 333 335 335 337 337 337 338 339 339 338 338 338 338 339 340 340 339 340 341 340 340 340 339
351 351 351 351 350 350 348 346 343 341 339 340 340 338 338 338 335 332 331 333 335 336 336 336 337 338 339 340 340 338 338 338 337 337 337 337 337 337 338 339 339 338
351 351 351 351 351 350 349 347 345 342 340 340 338 337 337 337 335 332 331 333 334 336 336 335 334 335 336 339 340 339 339 337 337 336 336 336 336 335 335 336 337 336
351 351 351 351 350 350 349 347 346 344 342 340 338 337 337 335 334 333 331 333 334 335 336 335 334 333 334 335 337 339 339 338 337 336 334 334 335 335 335 335 336 336
352 352 351 351 351 349 349 348 346 345 343 340 339 338 335 334 333 333 332 333 334 334 335 334 333 333 334 334 335 336 337 337 336 335 335 334 334 334 334 335 336 335
352 352 352 351 351 350 349 348 346 345 343 340 338 336 335 333 333 332 331 332 332 333 333 332 332 333 333 334 334 334 334 334 334 334 334 334 334 334 335 334 335 334
352 352 352 352 351 350 349 348 346 345 343 340 338 336 335 334 333 332 331 331 331 332 331 331 331 332 333 334 334 334 334 334 333 333 333 334 334 333 334 334 334 335
352 352 351 351 351 350 349 348 347 344 343 340 338 336 335 335 333 333 331 331 331 331 330 331 332 332 332 333 333 334 334 334 333 333 333 333 333 333 334 334 334 335
352 352 352 352 351 350 350 348 346 345 343 340 338 336 335 335 334 334 333 331 331 331 331 332 333 332 332 331 332 333 333 332 333 333 333 333 333 333 334 335 335 335
353 352 352 352 352 351 350 349 348 346 344 341 338 336 335 334 334 334 334 332 331 331 331 331 332 331 331 331 331 331 332 332 332 333 333 333 333 334 335 334 335 335
353 353 352 352 352 352 351 351 350 348 346 343 340 338 336 335 335 335 334 333 332 332 331 332 331 330 330 331 330 332 332 333 333 333 334 334 335 335 335 335 336 336
353 353 353 353 352 353 352 352 351 350 348 346 343 340 338 336 336 335 335 334 334 333 333 332 331 330 331 330 331 331 332 333 335 336 337 337 337 337 338 337 339 339
353 353 353 353 353 354 354 354 353 352 350 348 346 343 341 339 337 336 336 335 335 335 334 333 332 332 332 331 331 332 333 334 336 337 338 339 339 339 339 339 340 341
354 354 353 354 355 355 355 355 355 354 352 351 350 347 345 341 339 337 337 337 336 336 335 334 334 333 333 333 333 333 334 336 337 339 340 341 342 342 341 342 342 343
354 354 354 355 356 357 357 357 357 356 355 354 352 350 348 345 341 339 338 338 337 338 338 336 335 334 335 334 334 335 337 339 340 341 342 344 344 344 344 344 344 346
354 355 356 357 358 358 358 358 359 358 357 356 355 353 352 350 347 344 340 339 338 339 339 339 336 336 337 337 337 339 341 342 343 343 344 344 344 345 345 346 346 347
355 357 358 359 359 360 359 360 360 359 359 358 357 356 355 354 352 348 345 343 342 340 340 339 337 338 339 340 341 343 345 345 344 345 345 346 345 345 346 347 348 349
357 359 359 360 361 361 361 360 361 361 361 360 360 359 359 357 355 352 350 347 345 342 340 339 338 339 341 341 343 345 346 346 346 347 347 347 347 348 348 349 351 352
358 360 361 361 362 362 362 362 362 362 362 362 362 362 360 359 358 356 354 351 348 345 343 341 340 341 342 342 344 346 347 348 348 348 348 349 349 350 351 352 353 354
360 362 362 362 363 363 362 363 363 363 363 363 362 363 362 361 360 358 357 355 352 350 348 344 342 341 342 343 345 347 348 349 349 350 350 351 351 351 352 353 354 355

ECMWFNIL_850_thetae_081.txt.gz
Theta_e
344 343 342 341 342 343 343 342 341 341 341 342 341 340 339 338 338 340 341 341 341 340 340 340 339 339 338 338 339 339 340 341 342 343 343 342 343 343 343 343 343 341
346 345 344 343 343 343 343 343 342 341 341 341 341 340 340 338 338 339 340 341 341 341 341 340 339 338 338 338 339 339 340 341 341 342 342 342 342 343 343 344 344 343
347 346 346 346 345 345 344 344 343 342 342 341 341 341 340 339 338 338 339 339 340 341 341 340 340 339 338 338 338 339 339 340 340 341 341 342 342 343 343 343 343 343
347 347 347 347 346 346 345 345 344 344 343 343 341 341 340 340 339 339 339 338 339 339 338 339 340 339 338 337 337 339 339 339 340 340 340 340 341 341 342 342 342 342
347 348 348 347 348 347 346 345 345 344 343 343 342 342 341 341 340 340 340 339 338 338 338 338 338 339 339 338 337 337 338 339 339 340 339 339 339 340 341 341 341 341
347 348 348 348 348 348 346 345 344 344 343 342 342 342 342 341 341 341 341 340 339 338 337 337 337 337 338 338 338 337 337 338 338 338 339 339 339 339 339 340 340 341
347 348 348 348 348 348 347 346 345 344 344 344 344 344 343 343 342 341 341 341 341 339 338 337 336 336 337 338 339 339 338 338 337 337 338 338 338 338 338 338 339 339
346 347 348 348 348 348 348 348 347 346 346 346 346 345 345 344 343 342 342 341 340 339 338 337 336 336 336 336 337 339 339 339 338 337 336 337 338 337 337 338 338 339
346 347 347 348 348 348 349 349 348 348 347 346 346 346 346 345 345 344 343 342 341 339 338 337 336 336 336 334 335 336 339 339 338 337 337 337 337 337 337 337 337 338
346 347 348 348 348 348 348 349 349 349 349 347 347 347 346 346 346 346 344 343 342 340 338 336 336 336 334 333 332 334 336 338 339 338 337 336 337 337 337 337 337 337
346 347 348 348 348 348 349 349 349 349 349 348 348 348 347 347 347 347 345 343 341 340 338 336 335 335 334 332 331 332 334 337 337 337 336 337 337 337 338 337 337 337
346 346 348 348 348 348 348 348 349 349 349 349 349 349 349 348 347 348 346 342 340 338 337 336 335 335 334 332 332 332 334 336 337 337 336 336 337 336 337 337 337 336
346 347 347 347 347 348 348 348 348 349 349 349 349 349 349 349 348 347 345 343 340 338 336 335 335 334 334 332 332 332 333 335 336 336 336 336 335 335 336 336 335 335
346 346 346 347 348 348 348 348 348 348 349 349 349 349 349 348 347 346 344 343 341 339 337 335 335 334 333 332 332 332 332 334 335 335 335 335 334 334 334 334 334 334
346 347 347 347 348 348 348 348 348 348 349 349 349 349 349 348 347 345 344 343 341 339 338 336 335 334 332 331 331 330 331 333 334 335 335 334 334 333 333 334 333 333
347 347 347 347 348 348 348 348 349 348 349 349 349 349 349 348 346 345 344 342 340 339 338 336 334 333 331 330 331 330 331 331 332 333 334 334 333 333 333 333 333 333
347 347 348 348 348 348 349 348 349 349 349 349 349 349 349 348 346 345 343 341 340 339 338 336 333 331 330 330 331 330 330 331 331 331 332 333 333 333 331 331 332 332
347 347 348 348 348 349 348 348 349 349 349 349 350 350 350 348 346 344 342 340 339 338 336 335 332 330 330 329 330 330 330 330 330 330 330 331 331 330 330 329 330 330
348 348 348 348 348 348 349 348 348 349 349 349 350 350 350 349 347 345 342 340 339 337 335 334 332 331 330 330 330 330 330 330 330 330 329 329 329 329 329 329 329 329
348 348 348 348 349 349 348 349 348 348 349 349 350 350 350 350 348 347 345 342 339 336 335 334 332 331 330 330 330 330 330 331 331 331 331 330 329 329 329 329 329 329
348 349 349 348 348 349 348 348 348 349 349 349 350 350 350 349 349 349 347 344 341 338 336 334 332 331 331 330 331 330 330 331 331 331 332 331 330 329 329 329 330 330
349 348 349 348 348 349 349 349 349 349 349 349 349 350 350 350 350 350 349 346 343 342 339 335 332 331 331 330 331 331 331 331 331 331 332 331 331 330 331 331 331 331
349 348 348 348 348 348 348 349 348 348 348 348 349 349 350 350 350 350 350 348 347 346 342 337 333 333 332 331 331 332 332 332 332 333 333 332 332 332 331 332 333 332
349 348 348 348 348 348 348 348 348 349 349 349 349 349 350 350 350 350 350 349 349 349 345 340 337 337 334 333 334 334 334 334 334 335 335 334 334 334 334 334 334 333
348 348 348 348 348 348 348 348 349 349 349 349 350 350 351 351 351 351 351 351 351 352 350 347 346 345 340 337 337 337 336 336 336 337 337 335 335 335 335 335 335 335
348 348 348 349 349 349 349 349 349 349 350 350 351 351 351 351 352 352 352 352 354 354 354 353 353 351 347 343 342 343 342 342 342 341 339 337 335 336 336 337 337 337